GFSNW_sfc_rhum_045.txt.gz
RH
89 89 90 90 90 96 99 82 71 87 70 58 72 61 47 54 43 43 45 40 41 44 48 52 51 51 46 56 47 40 43 52 53 36 33 36 36 41 46 53 49 68 61 41
88 91 92 92 91 94 90 74 93 95 59 71 69 58 48 45 43 44 43 50 47 54 59 59 58 59 58 47 45 50 47 53 56 42 34 37 40 43 46 51 59 62 79 37
91 93 91 91 93 94 84 91 93 88 72 66 56 52 47 47 53 50 46 50 52 59 62 62 66 62 56 55 50 73 57 52 50 50 39 43 42 45 47 46 62 52 49 34
94 93 94 91 94 97 93 85 84 78 85 72 58 46 50 47 53 50 47 50 51 56 67 65 68 60 54 49 67 60 51 53 51 57 56 45 36 37 50 43 43 51 39 43
94 94 93 90 93 95 95 90 77 70 75 72 54 61 57 51 53 53 51 54 57 52 60 53 67 60 55 45 57 62 59 67 56 62 61 56 49 41 40 43 39 41 42 41
94 94 92 90 95 88 87 96 81 63 83 80 62 64 60 52 58 66 59 55 57 61 60 63 68 67 65 55 61 70 62 72 67 65 60 46 63 48 43 43 44 38 44 36
94 94 90 92 95 86 85 91 86 86 81 80 63 60 57 58 54 62 68 58 58 62 61 56 50 58 68 66 69 64 70 67 69 71 68 53 36 41 40 45 45 43 50 55
94 92 92 94 94 92 95 97 79 85 98 70 65 69 76 77 80 80 76 78 69 61 53 71 67 74 76 73 70 64 60 73 84 77 55 38 29 43 54 54 40 47 46 62
93 93 94 95 94 98 97 98 91 81 87 77 62 76 74 78 85 82 88 72 64 61 75 81 80 77 61 58 70 71 62 67 76 81 64 58 38 39 50 43 59 49 58 72
96 95 95 96 94 99 95 99 89 82 95 94 78 76 76 75 80 88 80 71 72 63 87 89 88 71 49 59 70 96 95 96 92 83 80 60 41 43 46 57 51 68 62 70
98 98 98 98 94 96 90 99 96 90 98 95 90 85 78 77 78 83 81 74 81 86 91 99 82 90 73 68 61 81 78 93 97 91 84 74 44 49 62 56 56 63 72 72
97 96 95 94 88 92 92 98 98 96 93 92 85 82 81 86 66 80 83 71 76 75 85 90 91 98 98 82 75 74 72 65 75 67 67 55 49 57 61 61 60 66 72 72
98 97 96 94 90 92 92 95 98 95 98 89 86 87 78 77 86 77 77 86 74 73 75 87 92 89 88 92 84 72 68 61 71 68 51 56 58 57 68 70 71 66 74 73
98 97 96 91 93 93 91 94 98 97 97 100 89 76 85 78 84 81 77 81 86 86 83 98 98 96 77 85 69 74 63 65 66 69 62 65 64 73 67 75 75 77 73 72
96 95 96 95 93 88 89 95 98 97 75 99 98 86 80 80 83 78 75 75 82 92 98 100 96 90 92 93 87 88 69 69 80 79 58 58 58 77 80 80 79 74 68 59
95 90 90 90 90 89 71 79 90 92 90 93 100 90 89 87 85 86 90 90 92 94 98 100 95 93 89 100 98 70 66 68 63 62 75 70 85 84 78 78 75 59 55 57
94 92 93 94 91 87 67 72 88 94 90 97 100 99 87 90 90 96 95 95 98 95 99 100 99 98 90 100 90 74 82 81 83 83 80 79 85 87 68 56 50 52 49 55
92 92 91 90 91 94 94 98 95 91 78 89 98 97 97 90 99 100 96 100 98 98 99 99 100 98 100 100 89 85 82 84 87 86 84 79 59 49 46 48 58 74 80 82
94 93 93 90 96 99 97 94 92 90 77 93 94 92 96 91 99 99 98 98 100 98 100 100 96 100 98 97 92 87 85 90 85 62 54 52 62 70 77 82 86 91 86 68
89 88 89 100 100 90 86 85 91 98 100 100 98 96 100 91 100 100 99 100 100 100 94 94 100 99 90 79 79 81 88 84 66 80 87 85 93 94 91 84 76 71 61 61
95 100 100 98 89 89 96 99 99 99 98 99 99 95 97 97 99 100 98 100 98 96 86 97 95 92 94 86 90 84 78 77 77 79 84 88 90 84 80 66 66 62 60 59
92 97 94 93 96 100 95 100 100 95 97 100 100 100 99 100 96 98 100 98 97 91 90 97 93 96 83 91 90 88 84 83 82 80 83 80 70 65 62 55 55 60 65 87
90 95 100 99 100 99 91 97 100 100 100 100 100 100 100 100 96 100 99 96 94 95 100 93 97 79 95 92 83 84 77 72 66 57 56 57 58 62 65 70 70 85 76 74
99 100 100 96 100 100 100 100 100 100 100 100 100 100 100 100 100 100 100 100 99 99 98 96 98 97 99 87 76 66 65 81 70 64 63 72 74 76 86 91 90 90 82 80
100 96 99 97 99 99 100 100 100 100 100 100 100 100 99 100 99 99 98 99 95 90 92 97 99 97 95 83 74 67 72 84 78 68 80 87 88 86 82 85 85 86 93 92
100 97 99 100 99 100 100 100 100 100 100 100 100 100 99 98 96 96 96 96 93 93 99 100 99 98 78 73 74 74 72 72 72 74 76 83 92 93 85 86 91 93 91 92
100 100 100 100 100 100 100 100 100 99 100 100 99 97 96 95 96 99 94 94 92 98 100 100 99 93 78 77 84 85 80 82 82 85 86 86 86 91 86 83 73 79 80 90

GFSNW_sfc_rhum_048.txt.gz
RH
89 96 90 90 94 93 97 60 54 83 66 56 48 48 31 42 30 35 27 24 22 25 27 30 26 28 27 36 27 29 32 32 40 28 26 26 26 27 28 34 34 46 42 21
91 94 93 91 93 93 71 53 68 89 65 66 58 37 30 32 30 30 32 30 26 32 32 37 36 37 43 36 32 33 31 35 43 36 29 31 30 28 27 31 40 39 63 22
91 93 94 93 92 93 65 47 77 90 66 38 41 39 33 30 38 33 32 35 35 38 40 41 45 44 43 40 36 70 44 35 33 38 26 27 33 31 27 25 39 25 28 14
90 94 95 93 93 93 78 54 47 47 75 52 40 34 28 29 38 35 33 36 31 33 46 42 45 42 41 41 64 44 37 38 33 35 34 31 28 27 30 28 23 36 19 16
92 94 93 90 92 94 88 58 51 53 51 43 37 45 33 28 39 35 34 33 36 35 37 32 42 39 38 37 44 43 41 46 44 46 43 38 36 28 26 29 25 25 22 23
94 95 94 91 94 89 64 66 49 40 70 52 39 37 30 30 36 50 40 33 39 45 44 45 42 40 34 32 42 47 44 52 50 44 41 40 75 38 27 24 26 27 30 23
93 94 92 90 93 86 51 56 43 66 66 53 33 31 34 36 37 43 46 38 40 53 43 39 38 41 41 39 43 40 53 51 64 68 67 82 20 26 26 27 24 22 24 28
89 94 93 90 92 93 83 69 49 61 100 50 36 37 42 51 55 56 48 55 46 43 41 51 56 66 84 64 46 43 38 50 78 93 43 27 16 21 25 29 21 22 24 24
94 93 90 91 93 92 95 86 74 52 84 68 31 42 46 53 55 61 66 55 46 42 53 72 82 69 48 54 56 48 42 46 60 84 93 89 24 30 37 34 36 31 30 34
92 92 92 91 93 92 92 84 82 52 81 59 52 45 52 48 54 64 59 55 57 47 81 100 97 68 39 49 68 89 86 92 95 78 97 48 25 32 37 44 35 38 36 38
92 92 92 92 94 93 95 92 87 63 82 72 69 60 55 55 50 66 59 55 61 70 96 100 78 94 51 45 36 55 62 84 94 86 100 82 29 40 50 41 39 40 45 43
94 94 93 94 96 92 99 93 85 74 72 76 68 70 69 65 49 50 57 52 52 48 70 85 86 97 96 68 63 48 56 46 54 48 46 38 34 38 41 43 43 43 46 46
97 95 94 96 92 93 93 82 86 75 88 70 65 70 63 62 69 66 56 65 52 52 57 65 82 100 66 97 64 49 45 44 54 53 32 34 36 33 35 36 44 45 51 51
97 98 97 97 88 96 87 74 85 86 91 100 82 61 70 63 64 64 60 60 62 58 55 94 99 99 55 66 50 53 41 48 46 48 36 35 37 45 51 51 57 58 58 57
97 96 94 88 90 92 89 81 87 85 84 98 93 71 66 63 58 58 56 55 54 65 91 100 92 68 76 75 67 65 42 42 59 59 47 46 51 64 66 62 62 58 55 53
97 95 91 90 86 79 66 65 76 88 74 91 100 74 75 68 67 69 71 64 68 73 86 98 77 72 74 99 71 57 54 55 54 49 59 61 67 64 60 62 57 50 50 51
95 92 91 94 91 81 54 57 75 85 77 96 100 95 76 76 71 80 76 77 92 80 92 98 91 85 70 100 81 69 66 64 64 62 63 70 66 66 53 50 47 54 61 73
93 92 92 89 87 88 74 81 86 81 61 76 100 97 93 76 97 98 81 96 89 93 96 95 98 93 96 99 76 67 64 67 69 65 59 57 48 46 51 60 72 90 89 81
94 94 93 81 87 88 80 93 88 71 62 100 100 100 100 80 95 94 91 91 100 92 100 99 86 96 97 92 81 68 68 75 64 53 50 53 62 68 72 78 83 83 75 62
90 74 69 99 95 89 80 68 81 92 99 100 100 88 99 80 97 99 96 100 100 100 94 90 100 89 78 76 77 73 73 66 62 76 82 82 85 81 74 68 56 54 55 50
90 96 100 91 86 73 88 100 100 100 100 94 92 82 93 87 95 100 98 100 100 100 87 93 94 89 86 82 79 71 64 64 65 64 69 72 70 59 58 52 55 50 49 48
86 90 84 79 86 100 100 100 100 99 95 99 99 98 90 99 85 97 99 100 99 98 79 98 89 90 84 81 80 76 76 72 68 66 67 63 55 46 45 45 49 56 61 89
81 90 100 100 100 100 100 100 100 99 100 98 100 100 100 98 90 100 100 100 100 81 98 83 88 78 86 85 78 69 67 68 63 48 42 45 50 58 61 70 69 92 68 67
100 100 100 100 100 100 100 98 100 100 100 100 100 100 100 100 100 100 100 100 93 100 95 94 93 99 96 77 60 50 55 85 58 52 57 69 69 72 93 97 97 95 78 73
100 100 100 100 100 100 100 100 100 100 99 100 100 100 95 100 100 100 100 100 98 88 88 95 98 97 82 64 55 53 62 90 75 59 85 96 96 86 79 78 67 72 86 86
100 99 100 100 100 100 100 100 100 99 100 100 97 100 100 100 99 100 100 95 89 94 90 100 97 97 71 61 61 60 58 59 64 69 72 81 88 83 65 65 70 82 79 85
100 100 100 100 100 100 100 100 100 99 100 100 100 100 100 97 98 98 87 99 93 98 100 98 99 80 64 60 66 86 75 71 71 70 67 67 65 70 62 59 49 51 52 74

GFSNW_sfc_rhum_051.txt.gz
RH
85 87 89 95 93 92 85 62 62 58 57 47 51 50 31 28 18 24 26 22 17 19 18 21 19 17 17 20 19 21 20 22 26 24 18 18 19 20 21 38 29 30 37 22
86 87 90 96 94 86 55 65 62 86 55 54 63 39 31 22 21 22 26 22 17 18 21 25 21 19 36 25 26 22 25 24 32 28 24 23 24 19 19 22 30 34 53 25
85 89 91 97 94 82 52 49 80 98 79 37 46 44 36 30 23 24 22 20 18 23 22 20 26 26 35 34 26 59 41 23 25 34 24 20 30 22 20 23 42 32 21 16
85 89 89 96 93 82 61 56 45 55 67 46 55 38 32 29 25 27 26 26 25 26 29 26 29 28 37 35 58 33 31 35 25 22 24 23 21 21 21 24 22 32 21 14
85 89 88 96 93 84 76 59 39 40 38 40 51 50 38 27 20 24 31 29 21 22 27 28 28 28 33 33 37 35 30 37 35 40 28 28 28 22 20 18 19 15 15 15
87 89 87 96 94 82 73 59 48 44 55 48 45 42 33 24 21 36 30 25 21 29 29 33 31 26 25 26 36 39 38 39 46 41 32 31 62 34 22 18 17 19 25 18
87 88 89 96 94 79 46 49 54 62 64 47 38 30 29 24 22 34 30 30 28 41 32 31 31 30 30 30 34 32 43 46 55 59 67 80 18 17 16 22 18 15 16 16
85 88 91 94 95 88 60 80 68 54 99 41 34 28 29 24 37 35 39 44 36 35 33 45 54 61 68 43 30 31 32 45 65 90 42 26 19 14 19 20 19 13 17 14
85 90 92 94 94 91 89 95 73 69 70 51 27 27 26 35 43 54 56 43 38 40 44 63 55 52 35 42 45 34 31 36 54 74 91 90 27 22 24 23 30 18 20 22
91 90 93 94 93 92 85 84 76 65 45 31 32 34 36 27 35 47 55 54 51 45 79 100 94 59 33 48 67 89 77 82 85 69 96 52 22 25 27 38 39 27 23 22
93 92 93 93 93 91 84 85 72 76 54 45 49 34 31 30 34 59 50 52 55 60 85 100 74 85 48 42 30 55 62 81 92 82 100 82 22 28 39 39 29 30 30 30
94 90 91 92 92 93 88 92 69 59 50 61 60 62 58 49 40 32 50 35 44 43 55 79 82 96 94 60 56 30 49 40 52 46 47 32 25 26 35 33 35 35 38 34
94 94 93 92 93 94 84 87 63 53 70 63 58 60 59 51 56 56 47 51 36 42 49 57 74 100 60 95 61 40 33 34 45 43 24 24 26 27 29 30 34 34 38 41
95 92 92 92 94 92 92 82 72 70 81 99 78 54 62 53 51 50 52 47 52 49 48 91 96 98 44 64 44 42 34 37 34 36 27 24 31 42 47 44 48 48 48 47
92 92 92 93 94 95 94 92 86 74 61 92 90 62 58 49 48 49 48 50 50 55 83 100 86 55 65 60 52 55 32 32 53 55 45 43 51 54 55 51 51 48 47 47
94 94 96 94 92 93 85 90 83 70 59 86 100 70 66 57 51 51 50 48 51 58 79 89 60 55 63 98 66 45 40 43 45 43 49 53 57 52 49 51 48 46 47 47
98 97 95 90 91 80 85 59 67 82 63 96 100 99 71 65 57 61 58 64 78 66 84 93 76 66 58 100 75 51 54 51 52 52 52 61 53 56 46 44 47 54 50 52
94 90 87 85 91 92 84 69 79 81 68 94 100 99 96 67 87 94 65 88 78 87 90 90 90 77 89 90 60 55 54 54 53 50 47 48 45 49 56 60 68 80 74 73
89 88 89 78 80 72 76 90 84 72 67 100 100 100 100 70 85 85 88 85 100 82 100 92 80 96 96 82 70 62 59 64 54 46 45 49 58 63 66 69 67 63 56 45
96 67 54 92 86 89 85 72 83 88 90 98 100 83 99 76 94 97 94 98 100 100 90 68 97 83 69 66 68 65 62 56 52 66 73 72 74 65 61 51 44 45 44 47
69 88 99 86 85 72 89 100 100 97 100 87 82 72 91 80 94 100 97 100 98 100 85 89 86 84 80 70 70 60 57 57 60 62 65 61 61 53 46 43 42 46 50 60
84 82 78 75 85 100 100 100 100 96 94 93 96 90 84 96 79 92 98 100 98 97 72 98 86 91 72 72 73 70 64 62 65 61 56 48 40 38 41 48 56 63 64 91
72 85 100 100 100 100 100 100 99 98 100 98 98 99 96 96 86 100 100 100 98 76 98 83 83 76 72 74 70 63 57 56 53 41 39 45 55 59 62 70 74 91 67 64
100 100 100 100 100 100 100 99 98 100 100 100 99 100 99 100 100 100 100 100 82 98 94 93 88 85 82 69 59 55 53 79 54 50 57 65 70 81 94 97 94 90 68 64
100 100 100 100 100 100 100 100 100 100 98 98 98 99 94 100 100 100 100 100 97 87 91 96 97 95 75 60 50 50 64 87 68 62 90 100 99 75 65 64 59 68 83 81
100 100 100 100 100 100 100 100 100 98 97 91 89 100 100 100 98 100 100 95 89 98 94 99 96 87 70 53 54 53 51 55 62 68 72 76 77 78 58 57 58 77 72 78
100 100 100 100 100 100 100 100 100 98 100 100 99 100 99 86 92 97 80 100 96 99 99 98 92 77 61 56 62 82 70 65 65 63 61 61 58 59 52 49 41 39 41 69

GFSNW_sfc_rhum_057.txt.gz
RH
83 82 83 85 86 96 98 97 95 67 70 97 87 84 60 58 44 38 42 30 38 36 26 28 28 29 25 23 26 30 41 59 72 52 38 24 24 31 44 65 44 58 68 53
88 88 84 84 88 96 96 97 84 76 65 73 83 62 58 50 46 43 39 41 37 36 36 37 35 30 43 28 29 34 42 45 57 48 34 33 34 27 26 35 61 53 75 58
81 84 90 83 89 93 96 96 91 96 90 45 58 62 52 54 42 46 40 33 34 39 38 31 35 53 47 42 42 62 47 42 48 57 38 34 40 32 28 35 77 60 58 45
80 79 89 83 88 92 96 98 64 78 96 90 62 52 47 52 53 44 39 35 36 38 42 36 32 50 52 46 59 47 43 47 41 32 30 32 30 35 33 33 39 56 44 38
75 78 90 83 87 89 98 96 69 80 84 70 78 59 49 46 44 43 41 40 37 35 38 35 36 44 52 50 54 48 44 57 50 58 43 39 42 34 35 33 31 31 34 34
75 80 88 84 87 91 96 77 80 60 84 79 82 73 48 44 41 41 34 35 43 46 36 40 43 42 43 44 54 54 56 60 74 74 48 47 60 43 36 34 33 33 40 33
77 81 86 85 89 88 86 73 83 93 80 80 71 54 45 46 44 53 34 31 44 43 44 47 52 51 47 44 51 47 63 64 83 83 73 64 43 30 23 30 26 25 26 34
79 82 89 85 91 88 82 87 95 96 100 63 62 50 46 42 46 51 43 45 47 47 51 75 76 76 65 56 47 46 55 79 88 77 81 55 37 30 30 32 36 30 32 38
83 90 88 87 90 90 90 76 95 99 95 78 46 48 44 53 58 72 81 70 64 63 78 82 80 88 61 61 49 53 53 73 78 97 90 76 55 31 27 28 55 41 36 38
89 86 85 90 91 87 91 93 90 99 100 76 50 50 47 47 62 83 88 90 80 83 100 100 94 80 47 73 76 77 90 91 87 98 96 80 54 33 37 50 58 47 43 63
84 86 90 89 90 86 93 90 93 99 99 88 68 42 49 50 60 87 81 82 93 96 96 99 94 91 66 66 64 76 78 93 98 98 97 83 47 35 46 62 53 50 56 66
86 90 91 90 92 95 82 94 93 92 99 98 88 76 74 67 58 73 74 70 67 80 96 100 99 100 98 76 80 57 84 80 89 80 85 66 57 55 51 49 56 62 60 58
87 90 88 89 90 89 85 92 97 97 100 98 97 88 74 61 72 81 83 80 62 72 84 98 99 96 91 92 88 64 55 48 71 62 50 43 62 59 60 62 64 64 64 62
90 88 84 89 92 87 86 96 94 98 99 100 97 71 72 66 72 79 88 95 78 84 94 99 99 98 75 90 67 70 60 52 53 57 66 68 71 69 67 66 65 54 49 50
90 88 84 88 91 92 94 97 94 96 100 100 98 78 69 59 73 82 78 88 89 91 87 100 99 89 87 83 77 73 54 57 73 78 72 75 80 71 67 64 59 54 57 63
90 88 87 92 93 95 97 98 94 95 96 100 100 89 83 71 70 78 79 86 92 96 99 99 92 75 90 97 91 60 64 63 65 74 70 69 64 60 58 60 60 61 66 70
91 90 92 95 95 97 94 95 98 98 99 99 100 99 90 82 80 94 94 93 96 96 97 98 91 90 95 100 94 69 66 64 66 62 63 71 66 70 60 67 71 73 73 75
90 92 94 95 95 98 93 99 93 98 98 98 100 100 98 83 98 100 96 98 97 97 96 97 99 97 99 95 74 67 62 60 62 64 62 67 70 71 71 69 71 78 82 80
95 95 97 99 98 100 95 95 94 96 86 100 99 100 100 87 98 99 96 96 100 98 100 96 94 97 98 84 78 71 67 67 65 64 68 71 77 74 72 71 75 79 75 67
97 95 99 100 99 96 99 92 92 96 99 100 100 98 100 91 100 100 100 100 100 100 98 88 100 99 77 76 76 74 69 60 65 82 88 83 79 77 73 68 64 67 72 77
99 100 100 99 99 96 99 100 100 100 99 98 96 95 99 97 99 100 100 100 100 99 96 98 99 100 90 80 78 69 66 63 64 67 70 68 69 61 68 74 80 86 88 92
94 93 97 98 98 100 100 100 99 96 99 98 100 99 98 100 98 100 100 100 100 99 92 98 100 97 81 78 78 80 74 69 69 67 67 58 53 62 73 83 90 86 85 91
88 94 100 100 100 99 99 99 98 96 100 100 99 100 100 100 98 100 100 99 99 94 99 97 99 86 79 77 78 76 70 68 60 62 68 75 82 86 88 89 86 84 80 85
100 100 99 100 100 99 99 100 100 100 100 100 100 100 100 100 100 100 94 100 96 99 99 96 97 88 82 76 75 70 70 77 81 84 84 85 83 85 87 89 88 88 82 85
99 99 99 99 99 100 100 100 100 100 100 100 100 100 99 100 99 100 99 99 94 94 95 100 95 83 78 74 70 70 78 84 86 87 89 88 83 77 78 83 77 81 89 90
99 98 99 100 100 100 100 100 100 100 100 100 99 99 96 100 98 98 95 94 97 100 100 97 87 82 75 70 74 73 78 87 91 90 87 82 82 78 68 76 80 89 85 89
98 99 99 100 99 99 100 100 100 99 100 100 98 96 99 97 98 97 99 100 100 99 99 96 82 78 74 72 79 83 84 86 82 79 76 74 72 76 72 62 67 70 69 88

GFSNW_sfc_rhum_063.txt.gz
RH
76 76 83 77 76 83 90 94 95 87 82 99 92 82 64 60 46 43 55 60 60 54 37 39 39 36 30 29 39 34 45 50 53 40 39 39 37 40 46 65 49 68 69 54
76 76 78 80 74 82 95 94 85 89 75 93 90 71 63 58 46 50 55 61 56 52 42 39 40 40 36 37 38 45 48 56 62 47 40 46 48 43 47 56 65 63 76 57
76 78 75 75 76 76 97 94 95 99 93 67 66 72 73 72 55 56 55 59 57 61 54 42 42 43 51 50 40 67 49 54 48 58 42 41 49 41 40 48 76 58 63 44
77 78 77 73 73 74 96 94 76 79 92 89 78 62 65 73 67 57 54 58 60 63 67 50 45 56 56 52 61 50 46 52 48 46 40 39 38 40 43 45 47 54 46 50
77 78 78 74 72 75 98 93 90 80 88 69 78 66 64 68 62 57 60 57 55 47 59 48 46 52 56 51 54 49 51 52 48 64 52 47 49 41 42 44 43 47 45 44
78 78 76 75 76 74 98 86 79 81 75 75 76 67 61 60 52 56 47 47 52 51 54 49 40 46 47 43 50 55 55 66 69 58 59 58 68 54 43 40 39 40 46 39
77 77 76 77 76 79 97 71 85 98 78 80 68 64 60 59 54 54 48 44 48 45 53 51 54 61 62 57 63 58 64 70 77 80 75 75 45 45 41 44 40 39 46 51
77 77 78 79 79 84 97 71 91 99 99 70 68 66 62 54 53 55 45 48 33 53 61 68 68 79 73 64 66 66 66 81 86 78 82 61 50 41 40 36 38 47 49 55
77 78 78 79 79 87 94 96 91 97 99 77 65 69 62 64 61 60 52 45 74 68 82 83 78 82 73 74 60 62 65 78 80 94 80 81 61 45 33 34 51 43 48 59
78 79 79 82 82 90 92 97 95 96 100 91 70 77 72 56 59 64 67 85 87 77 99 95 87 78 62 74 73 75 92 96 89 97 87 75 52 41 38 45 51 50 49 52
80 80 81 82 83 88 94 93 96 96 98 95 94 72 74 62 57 72 84 84 90 96 96 97 92 89 76 74 64 68 74 89 96 94 84 76 49 49 42 50 74 69 71 75
81 82 82 84 82 85 88 97 94 96 98 96 87 79 80 82 50 54 92 67 84 83 96 97 97 95 95 82 86 68 64 67 80 74 76 61 58 46 60 65 71 74 76 79
81 83 85 82 81 85 89 95 89 96 97 95 99 95 84 83 82 56 81 89 80 86 90 96 98 85 86 91 86 80 68 68 74 68 68 71 76 75 72 70 71 72 78 67
81 83 83 84 83 86 91 95 92 89 97 100 94 92 92 77 85 72 66 76 93 94 97 100 100 92 77 85 65 77 70 69 81 88 89 77 76 84 72 72 72 70 71 64
82 82 84 82 83 88 93 95 93 86 93 100 98 91 88 90 94 80 83 82 89 95 95 100 95 91 87 92 82 80 66 70 80 80 77 72 78 82 72 72 74 72 69 75
84 82 83 89 91 82 87 97 93 95 97 99 100 92 94 92 94 91 90 93 97 98 99 100 96 90 88 91 90 63 70 70 61 62 73 85 82 72 69 75 75 74 74 75
82 86 91 91 82 88 90 94 94 90 94 100 100 99 93 94 95 98 98 96 99 96 99 100 97 98 93 99 91 74 81 78 77 71 71 79 75 82 76 75 76 77 79 80
90 90 90 89 83 78 92 99 87 84 92 97 100 99 99 88 99 100 98 99 98 99 99 100 99 97 99 96 80 86 74 74 76 77 73 74 80 79 78 73 73 76 78 75
86 85 86 91 90 94 95 96 90 98 96 100 100 100 100 94 99 98 97 99 100 99 100 100 96 100 98 88 86 83 75 81 82 76 76 74 80 80 79 76 71 75 75 75
88 87 94 100 96 93 95 98 100 100 100 100 100 99 100 97 100 100 100 100 100 100 99 95 97 98 87 85 83 82 82 76 75 87 92 88 88 85 82 72 66 69 74 81
96 97 100 94 92 92 97 100 100 100 100 100 98 98 99 98 99 100 100 100 100 100 98 97 100 98 93 90 88 82 80 78 80 79 75 72 77 81 78 79 81 78 72 73
93 97 98 99 98 100 100 99 100 99 96 99 100 100 99 100 97 99 100 98 98 96 94 100 99 94 94 93 89 88 83 80 79 76 76 75 76 75 77 81 79 77 73 78
98 98 100 98 100 100 99 98 99 100 99 99 100 100 100 98 99 100 98 98 98 95 99 96 93 96 91 86 84 84 78 77 75 75 78 80 77 76 79 79 76 74 67 69
100 100 99 100 99 99 99 99 100 100 100 100 99 100 100 100 99 100 98 99 97 99 100 97 99 95 89 80 78 76 81 88 89 90 83 78 76 78 82 82 80 76 66 71
99 99 99 99 100 100 100 100 100 100 99 100 99 99 97 100 99 98 99 99 99 98 94 98 99 93 85 87 88 89 92 91 88 83 86 85 77 73 76 78 70 74 87 89
99 99 99 100 100 100 100 100 100 99 100 98 95 96 93 100 97 95 98 96 95 98 100 100 92 87 85 87 86 83 82 82 82 84 87 78 78 78 75 77 78 87 87 89
96 99 99 99 99 100 100 100 100 99 100 99 96 90 99 99 97 99 100 100 99 99 100 95 85 86 90 92 92 94 94 95 95 91 74 74 70 71 70 73 70 64 73 90

GFSNW_sfc_rhum_066.txt.gz
RH
82 79 78 79 81 81 82 94 95 79 84 96 90 88 70 62 53 51 52 63 66 62 41 44 43 39 32 32 37 34 45 48 48 42 45 40 45 46 51 66 54 70 70 60
84 79 78 79 78 79 93 96 89 90 75 91 83 70 67 66 58 55 56 63 59 64 53 44 44 43 36 39 36 42 47 51 54 43 42 51 53 48 50 58 68 66 77 61
85 80 78 79 78 79 94 93 98 96 94 65 68 76 74 70 61 60 55 64 63 63 60 48 46 44 48 49 39 64 47 57 46 47 42 44 59 47 52 52 79 62 65 47
85 80 79 78 78 79 94 98 89 80 95 90 77 64 65 68 65 59 60 66 65 62 66 57 47 55 58 54 65 55 45 47 51 47 44 39 39 38 47 47 49 54 48 52
85 82 79 80 78 77 96 100 91 84 90 71 78 74 67 70 64 67 64 68 58 62 67 54 53 57 59 50 56 54 53 51 52 65 56 51 56 47 48 46 47 48 50 49
86 81 79 78 78 79 98 94 93 95 76 72 78 76 64 64 61 58 58 54 51 63 50 41 41 48 51 55 57 58 55 65 66 58 61 59 65 56 47 46 47 46 54 45
86 82 78 77 78 77 95 88 92 97 85 80 67 62 63 58 61 67 53 58 57 51 50 52 55 65 64 57 68 59 66 64 72 77 74 66 44 52 46 49 46 42 43 47
86 83 79 78 73 73 80 74 89 96 89 70 68 65 60 55 57 64 56 52 48 50 58 71 72 81 76 75 73 74 65 76 84 76 78 56 48 49 47 45 42 42 47 58
86 84 80 78 74 74 81 82 96 97 99 76 61 63 59 68 67 73 68 52 63 66 76 81 81 88 76 79 69 67 67 74 75 91 80 76 58 52 36 35 50 44 52 63
86 82 79 78 75 75 85 85 87 98 98 92 62 70 70 57 68 81 69 62 82 71 96 94 88 77 70 82 80 82 91 93 82 96 86 77 58 43 37 49 53 52 54 64
86 81 80 78 76 77 85 88 86 97 95 91 94 79 70 61 60 75 75 73 86 96 88 94 92 90 80 80 69 77 78 90 92 90 87 75 50 49 43 49 71 62 58 62
86 81 79 79 79 79 78 95 87 95 91 94 86 80 81 59 54 55 76 66 84 82 91 97 95 92 95 79 84 66 72 68 78 72 75 63 58 49 51 57 64 70 69 76
84 80 80 80 80 77 82 94 92 96 95 93 97 93 78 84 86 69 83 92 83 88 88 95 96 87 86 89 84 84 66 64 71 66 61 65 67 73 72 70 72 78 79 66
81 80 80 79 80 85 86 95 96 95 96 100 93 89 95 87 88 86 71 79 92 93 95 99 100 94 78 86 69 74 70 67 78 78 82 80 76 78 74 78 81 81 69 65
82 81 82 86 86 87 90 95 96 91 95 99 96 85 92 93 96 94 71 84 90 95 97 100 96 94 87 94 85 85 73 73 77 73 57 60 65 81 77 79 82 74 68 73
85 85 84 82 86 86 95 99 96 90 96 97 99 90 95 92 98 99 87 72 95 96 97 100 97 93 90 94 92 63 62 68 65 55 73 86 85 78 74 79 80 76 75 74
85 84 84 83 88 91 97 96 95 91 92 97 99 99 95 95 96 99 97 96 99 96 98 100 96 98 89 98 91 69 83 80 79 75 74 80 76 80 79 79 81 80 81 80
85 85 83 84 82 88 96 99 90 89 95 96 100 99 98 92 100 100 98 99 98 99 100 100 99 98 99 98 77 87 80 79 80 82 77 79 81 82 86 83 83 90 90 84
88 87 90 92 94 97 98 93 86 95 91 99 100 100 100 93 99 99 99 99 100 99 100 100 96 100 98 85 82 84 79 77 85 81 77 75 83 85 81 77 81 84 83 80
89 89 94 100 96 94 88 98 95 96 98 100 100 99 100 97 100 100 99 100 100 100 99 96 99 99 89 85 83 83 78 78 77 88 92 89 86 82 77 77 75 77 81 84
96 95 100 98 93 98 98 100 100 100 100 100 98 98 99 98 99 100 100 100 100 100 99 98 100 98 92 87 91 85 78 76 76 75 77 75 78 75 78 80 82 80 79 74
95 93 94 98 96 100 99 99 99 99 98 99 100 99 99 100 99 100 100 99 99 99 96 99 99 94 96 96 97 95 90 87 85 78 81 79 72 72 80 85 90 89 74 79
96 98 100 100 100 100 97 99 99 100 100 99 100 100 99 100 100 100 100 96 99 97 99 97 95 96 92 95 93 88 80 80 79 79 80 82 87 88 90 94 78 70 69 72
100 100 99 97 99 99 99 99 100 100 100 100 100 100 99 100 99 100 98 100 96 98 99 98 99 98 90 86 81 82 89 91 90 91 92 93 92 95 91 81 81 83 74 75
100 98 99 99 99 99 99 100 100 100 100 100 99 98 97 99 98 99 99 98 100 96 97 97 99 93 92 92 92 93 96 96 95 92 94 95 88 83 82 82 76 79 88 90
99 95 98 100 99 99 99 100 100 100 100 98 94 96 94 99 97 94 100 95 100 99 99 100 94 95 93 92 93 93 92 92 94 92 92 94 95 94 80 77 81 89 88 91
96 98 99 99 99 99 99 99 99 99 100 99 96 91 99 98 96 100 100 99 100 99 99 97 93 94 94 93 93 94 94 94 95 95 93 93 83 78 76 72 65 65 78 92

GFSNW_sfc_rhum_072.txt.gz
RH
84 83 82 81 84 84 90 89 99 54 65 98 94 81 45 43 30 38 47 47 50 50 32 30 23 24 20 20 20 26 20 25 29 26 22 23 21 24 27 36 33 36 40 30
84 84 82 82 85 86 96 96 96 70 65 95 91 62 52 36 38 33 44 48 44 49 50 36 30 27 27 20 22 24 25 29 35 29 26 29 28 25 25 28 35 32 54 32
85 84 83 84 87 85 91 92 99 87 93 52 62 59 52 50 38 38 35 41 42 48 47 42 38 36 34 30 22 54 34 25 28 32 22 17 27 22 23 25 39 30 27 23
86 86 84 85 88 86 91 96 95 63 95 91 61 54 43 46 46 41 37 45 44 43 48 47 44 37 43 36 56 31 28 29 25 20 16 16 18 17 20 25 24 28 24 20
87 88 86 87 90 87 95 97 80 56 55 69 71 63 62 44 40 41 39 45 41 41 45 40 53 42 39 40 42 34 31 30 29 30 23 23 24 20 20 23 22 22 24 21
88 88 88 89 91 89 97 73 48 45 64 62 84 73 60 52 37 38 34 37 31 45 45 49 44 42 40 38 40 42 40 34 39 38 31 33 56 35 24 23 25 25 27 20
88 90 89 90 92 86 89 68 50 78 58 62 62 59 50 45 41 47 35 36 43 35 40 36 35 33 36 35 34 38 44 42 42 50 70 82 28 25 21 24 22 21 22 20
82 89 91 90 91 84 72 62 57 60 87 41 47 56 51 45 46 46 40 37 33 37 41 47 49 59 42 32 26 41 41 45 59 88 51 29 30 31 29 30 26 18 20 18
82 84 92 90 91 83 83 64 54 60 75 57 38 52 56 53 51 63 49 37 44 45 55 59 54 51 35 42 56 50 45 48 55 66 86 82 32 22 23 24 37 18 19 22
81 84 92 90 89 84 88 67 66 60 70 50 42 53 72 46 44 59 58 57 58 48 71 100 88 55 30 48 65 87 73 70 80 64 89 41 32 31 26 41 38 22 21 23
80 82 88 90 87 84 81 69 66 58 70 66 56 47 58 55 47 61 49 59 59 67 84 98 74 80 53 43 32 52 62 72 87 68 99 82 34 31 34 28 34 26 30 31
80 85 89 90 85 84 72 78 72 55 76 72 71 70 72 91 44 48 56 48 48 50 57 76 57 96 90 51 59 42 60 51 52 49 44 36 32 26 27 29 25 33 31 33
80 86 88 88 86 84 76 82 84 77 83 63 72 64 50 56 75 60 58 51 35 48 42 62 69 92 62 94 60 44 46 50 56 51 30 34 37 30 38 30 33 32 35 36
84 87 88 88 87 85 72 83 79 69 63 85 59 51 69 54 56 63 60 39 58 46 61 75 89 92 42 55 38 46 35 41 44 39 34 44 42 43 36 35 41 45 43 38
88 88 89 89 88 79 74 81 66 50 54 83 66 48 57 73 62 61 60 56 56 70 78 99 80 49 64 62 58 53 40 41 54 55 35 42 28 36 44 43 44 43 44 44
90 91 89 88 87 78 76 98 75 56 66 89 100 73 75 73 75 69 62 53 54 62 60 80 53 64 64 96 66 34 31 34 35 37 50 46 55 55 55 49 43 43 42 41
90 90 90 89 81 68 67 68 70 69 72 97 100 97 79 79 82 75 67 63 60 64 74 89 71 77 65 99 72 31 38 38 50 55 55 49 50 48 57 54 49 52 43 43
91 92 86 77 72 71 71 84 86 69 91 95 100 97 99 97 98 97 71 78 76 85 76 94 86 90 90 89 45 37 44 50 55 55 53 52 56 59 58 53 52 54 53 51
88 84 82 80 78 75 76 89 79 80 82 100 100 98 100 97 100 98 98 86 100 93 100 90 75 98 97 65 43 48 51 57 48 54 55 59 58 57 60 57 56 59 61 57
82 85 97 100 96 95 91 98 97 96 93 95 100 99 100 96 100 100 99 100 100 100 98 82 98 77 56 56 57 58 52 52 58 66 70 70 66 65 64 60 58 59 58 61
76 97 98 85 93 96 97 100 100 100 100 95 88 86 98 98 100 100 100 100 100 100 97 95 98 82 67 68 67 63 61 58 58 58 58 58 63 65 64 68 74 75 73 81
94 89 76 94 89 92 99 100 100 99 87 92 94 86 91 100 99 99 100 100 100 100 98 99 98 83 80 81 76 70 65 62 61 59 62 62 62 65 72 76 79 82 86 93
86 87 99 86 100 100 100 99 98 97 99 98 100 100 98 96 92 100 100 100 100 99 100 99 97 94 89 84 76 73 64 64 64 65 68 75 80 80 83 90 91 95 94 95
95 100 100 100 100 99 98 90 92 95 100 100 100 100 100 100 100 100 100 100 100 100 100 98 99 99 98 93 85 86 91 91 88 88 88 90 91 93 95 97 96 94 93 94
100 100 100 100 100 100 100 100 100 99 98 97 98 97 97 100 100 100 100 100 99 96 96 99 98 96 94 94 92 91 93 93 91 88 92 96 94 91 93 94 93 89 93 91
100 93 96 97 100 99 99 100 100 99 100 98 97 100 100 100 100 100 99 94 98 97 97 98 94 94 94 92 92 93 94 94 95 94 92 91 93 93 90 84 83 94 94 94
100 99 97 97 97 97 98 98 97 99 100 100 100 100 100 99 96 94 92 96 96 96 96 95 94 94 94 94 93 95 94 94 92 89 85 84 69 62 62 74 73 66 73 86

GFSNW_sfc_rhum_075.txt.gz
RH
84 84 84 84 82 82 90 97 100 54 54 97 96 94 52 43 26 20 17 20 25 24 26 36 34 29 19 16 16 20 18 22 25 22 16 14 15 21 21 33 29 27 30 27
83 83 83 84 84 84 96 99 94 64 58 91 80 57 47 41 32 24 24 31 30 35 37 42 32 29 22 16 18 21 20 25 31 25 19 20 22 20 19 22 24 30 58 34
85 84 83 84 84 86 96 99 99 88 92 47 49 50 47 44 34 33 19 27 24 32 44 40 36 35 30 30 19 45 33 23 27 32 23 20 24 18 17 21 42 34 28 20
87 85 83 84 85 88 96 98 80 54 94 89 56 43 35 42 38 32 28 26 28 32 39 39 36 37 35 33 46 28 26 29 22 18 15 14 15 16 16 19 21 29 23 18
82 87 86 85 86 90 98 98 56 48 41 58 60 54 45 36 30 28 31 35 27 27 30 37 30 32 45 36 34 29 25 32 26 24 18 16 17 14 15 14 14 15 16 16
78 81 90 87 88 92 98 84 43 47 50 53 65 58 48 37 28 28 24 28 32 33 28 38 40 39 39 39 42 37 32 35 32 40 21 22 39 22 17 16 15 17 22 18
81 80 84 90 90 91 93 70 44 64 58 42 48 47 44 38 30 36 26 27 34 26 22 35 35 45 41 37 34 31 41 37 39 56 66 67 26 18 16 18 15 15 16 15
83 82 82 89 89 91 94 62 58 52 88 36 36 44 48 40 38 38 39 26 26 25 34 44 48 64 70 50 38 32 29 46 55 76 54 32 21 24 23 22 20 15 16 15
82 84 81 86 91 91 93 66 51 46 63 48 30 40 48 47 44 43 42 36 37 39 41 50 51 54 32 27 45 34 26 43 62 66 66 67 32 21 18 17 34 16 16 17
83 87 81 84 91 90 92 76 65 54 50 39 35 52 58 43 45 50 35 47 49 47 66 97 77 51 19 28 54 81 73 68 79 67 76 38 19 19 18 40 37 17 16 17
84 88 83 86 92 88 91 90 60 54 51 47 39 43 45 48 48 54 40 57 58 68 81 92 59 60 31 28 19 31 69 68 85 70 96 83 27 29 32 29 24 21 21 19
85 87 82 89 90 88 86 93 62 55 69 60 60 58 55 41 38 44 48 50 46 43 54 64 55 79 77 37 46 17 51 47 56 45 45 32 30 25 29 22 24 23 24 20
87 86 84 88 88 89 84 80 64 68 86 74 54 55 50 56 59 50 78 54 35 40 37 41 49 66 38 81 51 30 23 21 41 40 29 28 28 29 26 24 26 23 27 24
86 83 85 88 91 88 80 71 60 63 58 82 53 36 52 38 56 55 62 66 56 42 36 65 68 76 25 48 31 34 26 26 35 33 26 25 30 31 31 26 29 27 28 26
84 84 88 89 88 84 85 65 60 46 43 74 54 46 39 46 51 59 57 70 69 71 72 88 76 36 32 34 36 38 23 28 41 48 31 35 30 31 30 32 32 32 32 31
83 86 89 91 88 83 70 98 75 44 58 73 93 66 43 42 50 58 56 60 69 70 48 70 44 30 36 81 53 28 20 19 26 30 29 37 42 40 39 38 34 32 33 32
87 92 92 88 78 59 69 78 61 58 48 72 86 80 63 42 44 55 61 61 68 76 68 66 54 46 46 82 70 22 20 21 21 26 40 42 37 36 45 43 39 46 35 32
93 90 86 80 77 82 75 79 64 59 64 61 96 90 82 68 76 73 56 80 76 78 69 69 68 65 75 70 36 29 23 27 37 39 41 40 43 43 42 41 41 41 40 39
86 86 85 88 87 78 86 86 74 56 55 92 100 96 99 98 91 72 76 73 93 62 83 75 66 80 89 53 39 33 31 31 33 37 42 44 46 45 46 46 46 47 47 43
80 80 91 100 89 85 79 87 96 79 75 80 98 90 99 91 100 92 96 87 96 100 97 52 85 74 41 49 51 50 47 42 47 54 55 54 52 52 51 49 47 48 47 50
59 80 93 78 84 92 97 100 100 100 100 78 70 81 85 96 100 100 99 100 100 100 81 78 71 67 52 57 56 55 51 49 50 50 48 46 51 54 55 57 58 59 63 72
88 82 87 92 93 98 96 100 100 97 79 83 86 86 79 98 98 100 100 100 100 98 86 97 86 94 80 68 65 61 56 53 52 51 54 54 56 62 73 78 82 85 88 92
72 76 97 96 99 100 100 100 95 96 90 92 98 99 94 98 99 100 100 100 100 96 100 98 99 95 85 78 69 66 58 61 63 66 69 74 81 81 86 91 90 92 93 96
90 100 100 100 100 92 83 76 92 99 100 100 93 100 100 100 100 100 100 100 100 100 100 99 99 99 95 88 83 82 85 87 87 88 88 90 90 94 97 97 96 91 92 96
100 98 98 99 100 100 100 100 100 99 99 99 98 100 99 100 100 100 100 100 98 96 95 96 97 97 95 94 94 94 94 95 94 94 95 97 96 93 94 94 92 88 94 95
94 93 100 92 100 100 98 98 100 98 99 98 96 100 100 100 100 100 99 98 94 94 94 96 94 95 94 94 94 95 95 95 95 94 92 90 91 91 90 87 87 95 94 95
100 94 93 95 100 98 97 96 95 97 100 100 100 100 100 94 93 96 88 93 95 94 94 94 94 93 93 93 92 95 94 93 94 88 79 85 84 78 74 82 84 77 74 85

GFSNW_sfc_rhum_078.txt.gz
RH
84 83 83 83 84 85 90 97 100 74 62 98 88 94 62 46 30 25 30 29 30 20 21 35 37 29 25 26 21 22 21 28 32 22 16 14 16 23 25 40 33 40 54 40
83 84 84 84 84 86 97 98 98 75 66 94 85 56 55 46 36 28 28 32 26 24 32 33 34 32 25 22 30 26 25 30 39 28 20 18 21 18 19 24 27 36 60 38
84 84 84 85 84 84 98 100 100 92 93 56 57 56 51 50 37 35 25 30 30 40 54 54 36 35 29 45 36 64 50 28 30 38 30 22 25 19 17 25 47 39 36 27
84 86 86 85 84 84 98 100 92 67 97 95 67 50 40 43 40 33 33 36 37 48 62 65 38 44 43 42 44 38 40 40 28 22 19 17 19 21 20 21 21 29 27 22
86 82 84 86 86 84 99 100 78 54 56 65 76 65 52 41 30 29 34 38 35 33 65 32 32 33 63 57 46 48 35 39 32 34 21 21 21 17 18 18 17 16 18 19
81 81 80 81 88 89 98 96 58 58 66 78 71 66 51 40 31 28 24 27 33 40 51 48 46 33 45 53 55 55 55 41 41 49 28 24 37 25 18 15 15 17 22 19
80 80 79 79 82 90 96 90 68 78 87 53 74 49 45 40 34 36 25 26 29 29 27 63 50 57 40 43 51 60 60 54 47 61 68 59 28 19 17 20 18 17 16 16
82 81 79 78 81 85 97 90 70 72 91 48 45 50 42 39 38 38 32 26 22 23 31 52 84 66 69 56 41 54 60 60 90 75 59 37 26 23 24 26 26 19 18 16
81 80 80 80 81 81 96 95 70 68 74 59 36 46 48 46 43 42 39 29 34 35 45 67 94 88 47 62 51 41 55 60 65 84 75 74 43 24 25 24 39 20 18 22
83 81 81 81 82 82 93 96 81 74 76 50 44 59 51 48 42 45 39 41 52 47 67 100 97 71 28 40 55 73 79 83 74 72 83 54 28 23 26 43 47 25 22 23
86 86 83 83 82 82 91 94 84 76 81 50 47 60 68 51 47 52 40 49 56 73 80 94 81 78 46 38 25 69 86 91 88 78 97 78 32 33 36 37 38 30 27 30
86 85 87 84 84 83 87 98 77 70 79 81 62 51 57 39 37 40 45 47 44 48 67 74 66 84 76 46 55 32 68 59 73 54 57 46 42 35 37 36 37 35 34 29
85 86 86 87 86 84 91 95 76 85 93 93 82 64 50 47 50 50 58 47 39 46 48 56 58 76 44 85 55 33 24 35 54 57 39 41 53 59 38 34 39 29 32 32
85 86 87 86 86 84 88 92 80 92 91 94 65 42 42 38 48 51 45 48 53 82 79 69 74 82 40 55 43 41 31 30 34 37 32 32 29 43 38 36 35 34 31 30
86 86 86 88 83 87 91 84 85 66 60 84 66 48 38 39 42 51 53 59 67 96 92 92 74 52 54 50 44 42 26 29 43 58 38 45 38 34 41 41 34 30 35 35
89 88 85 85 91 88 89 99 87 72 81 71 85 50 45 42 41 51 55 59 69 93 97 80 57 43 50 91 61 30 26 25 26 31 35 43 50 42 40 45 43 40 38 37
90 86 91 90 88 84 88 83 93 86 62 68 87 69 52 43 51 51 56 57 68 89 93 82 66 53 45 91 73 30 26 22 22 25 26 52 42 47 44 42 40 42 36 35
89 88 90 86 82 80 87 73 75 65 52 53 97 81 88 83 69 70 54 64 77 88 89 78 71 60 68 71 38 35 30 26 26 40 42 43 46 43 42 40 40 43 43 43
91 88 84 81 90 95 90 78 76 71 69 95 100 90 99 97 92 69 72 73 100 89 98 82 70 77 82 51 40 35 30 31 28 25 36 44 46 44 45 44 44 49 48 44
79 75 94 100 98 75 64 81 93 76 76 82 97 75 99 95 100 95 84 85 91 100 91 79 99 74 46 38 40 53 48 45 44 55 57 52 52 52 50 48 48 49 49 57
91 94 99 93 82 86 96 100 95 84 98 78 70 79 94 95 99 100 91 99 100 100 80 88 92 75 60 59 58 53 51 50 50 50 51 48 54 56 64 76 81 78 81 86
79 84 79 92 94 100 100 100 100 92 82 74 87 86 78 98 93 100 100 100 100 96 67 97 76 95 74 67 64 59 55 54 55 54 60 65 67 72 78 85 89 92 92 92
60 71 99 99 100 93 99 95 86 93 81 88 97 99 96 100 100 100 100 100 100 99 97 88 97 94 86 79 73 73 70 71 75 78 81 84 87 86 90 94 93 94 95 96
92 100 98 96 96 99 100 95 87 98 99 96 97 100 100 100 100 100 100 100 99 100 99 99 99 97 94 88 84 86 91 90 90 88 87 88 89 93 93 95 96 95 96 97
99 98 99 98 100 99 100 100 100 98 99 100 100 100 100 100 100 100 100 100 98 95 96 95 97 95 93 93 92 90 91 92 93 91 94 95 95 94 96 96 95 91 94 94
86 87 96 93 99 96 93 96 97 94 98 100 100 100 100 100 100 100 98 87 91 95 94 94 93 95 95 95 94 95 96 96 96 96 95 95 94 93 93 91 92 96 93 95
98 94 91 95 93 97 97 96 93 90 100 100 100 98 100 100 96 93 86 93 94 94 95 95 95 94 95 96 96 96 96 96 95 95 93 93 92 85 79 87 79 72 77 87

GFSNW_sfc_rhum_081.txt.gz
RH
80 81 82 83 83 84 91 98 100 78 68 99 95 90 63 57 45 37 38 38 40 44 42 44 46 53 38 28 29 28 31 40 45 34 23 18 22 29 33 68 54 61 66 57
81 82 83 84 85 88 97 99 98 87 81 97 96 70 64 61 61 51 45 47 37 37 41 52 50 56 36 32 39 41 35 46 53 39 28 23 25 26 25 35 48 57 82 64
82 84 84 84 86 90 98 100 99 99 98 86 81 87 72 71 54 57 49 45 37 41 47 41 58 76 54 39 40 67 48 44 42 52 39 33 36 26 25 33 62 56 57 44
82 82 83 84 85 90 98 100 98 87 98 97 82 69 63 70 64 48 44 49 49 49 49 51 61 71 80 48 60 53 46 57 42 36 27 26 28 27 26 28 35 42 41 37
83 84 83 84 85 88 99 100 97 78 74 80 93 84 75 74 54 48 46 51 43 44 52 49 62 77 87 84 54 59 55 56 54 46 36 29 29 27 26 24 25 25 27 31
85 85 85 85 87 92 98 97 81 76 81 84 93 85 71 68 55 48 36 37 41 44 43 46 59 83 86 82 64 66 64 73 60 64 42 41 56 34 27 28 24 27 32 26
84 84 87 89 89 92 96 95 80 93 94 79 83 66 69 65 58 57 44 37 38 33 38 72 70 74 79 70 61 56 73 76 77 85 70 73 40 26 24 27 25 24 26 27
83 84 84 86 83 82 96 97 83 90 95 80 74 70 64 60 56 56 48 38 36 32 68 82 92 93 94 75 64 72 65 77 92 97 76 58 45 32 31 31 33 26 28 27
84 85 85 82 80 81 93 93 95 75 88 77 62 65 62 65 63 58 51 41 40 52 57 61 91 93 100 78 62 54 63 72 88 96 97 91 58 37 28 31 50 29 32 32
83 83 84 84 82 81 90 93 90 97 97 66 53 83 74 54 55 61 52 55 58 63 89 95 94 95 70 95 78 83 92 93 96 98 99 84 42 34 35 51 55 33 33 34
83 82 83 83 83 81 89 90 90 97 98 79 53 68 86 72 62 73 58 63 68 93 95 95 97 95 77 72 53 76 86 90 98 94 97 96 39 38 44 45 40 37 41 40
88 88 86 83 83 81 83 94 89 90 99 88 84 66 68 62 63 65 63 55 58 85 92 93 86 90 88 66 78 53 89 80 87 73 76 61 57 59 59 55 50 47 43 41
88 88 88 88 84 82 85 92 90 96 99 98 90 81 50 58 72 79 82 74 48 76 73 90 88 79 74 87 71 52 54 53 63 66 48 40 53 59 46 45 49 42 41 41
88 89 90 90 88 85 84 96 88 93 98 100 90 67 67 62 78 74 75 68 74 80 88 96 98 93 60 72 60 64 47 50 54 60 49 44 41 44 37 38 38 45 40 39
86 88 89 90 91 86 91 93 89 88 96 96 86 68 61 63 65 65 76 73 84 95 96 99 95 87 82 75 66 67 40 45 65 72 47 47 44 49 48 39 41 44 47 41
87 87 86 89 91 90 96 99 92 83 93 87 97 67 68 67 59 63 71 76 85 95 95 97 89 70 76 96 81 48 35 33 35 40 42 54 58 58 53 56 59 53 50 46
86 88 89 93 92 94 97 96 93 82 94 90 96 90 74 73 62 73 80 73 89 92 94 97 91 89 89 98 83 46 42 36 35 53 51 61 61 62 55 51 49 53 52 50
90 92 91 90 85 94 98 92 83 88 90 88 99 97 95 89 89 89 81 87 92 94 93 94 94 80 84 90 57 46 39 37 45 56 58 60 57 54 52 52 55 56 56 56
93 93 92 91 94 98 99 85 86 89 88 98 96 95 95 95 98 91 83 87 99 94 98 96 90 99 93 71 50 46 44 44 42 40 57 56 59 58 57 57 58 61 68 69
82 81 93 100 99 83 79 88 95 94 93 97 98 94 98 95 99 99 92 94 96 99 96 89 96 99 67 66 74 74 65 64 61 68 70 68 69 73 76 79 77 76 80 81
95 98 99 96 90 94 99 100 98 99 99 97 93 92 97 96 98 99 99 99 99 99 96 88 99 97 86 82 74 70 65 66 71 72 74 70 76 81 88 90 89 89 89 92
89 90 95 96 96 100 98 99 99 97 93 93 96 95 96 99 97 99 100 98 99 98 90 95 98 99 85 80 80 79 81 84 84 81 85 84 85 88 91 92 93 92 90 90
84 94 100 94 99 90 92 92 97 88 95 97 99 99 99 100 100 100 100 99 97 97 98 98 99 97 90 84 84 87 82 84 86 86 85 86 90 88 90 94 91 90 93 95
98 94 94 98 98 99 99 99 99 100 100 98 98 100 99 100 99 99 99 98 99 99 97 100 99 97 96 91 88 89 92 91 91 91 90 91 91 94 93 93 90 90 94 96
96 92 98 98 100 99 98 98 99 97 98 100 99 99 99 99 99 99 99 99 96 98 99 99 97 95 93 94 93 92 92 93 92 89 92 93 91 92 95 96 95 94 95 95
89 91 96 95 95 95 95 97 98 94 97 99 100 100 99 99 100 99 98 97 97 98 98 97 93 96 96 96 94 95 94 93 94 94 95 95 95 94 96 95 94 96 94 94
90 98 94 98 98 98 98 98 96 93 99 100 100 98 98 99 98 95 96 98 98 96 97 96 96 96 96 96 96 95 94 94 95 95 94 95 95 93 88 92 89 82 84 90

GFSNW_sfc_rhum_084.txt.gz
RH
77 78 78 79 82 83 89 96 99 88 78 99 92 94 61 56 49 45 46 49 43 48 37 48 46 47 52 38 48 48 31 37 45 38 28 26 29 31 39 65 59 64 68 55
78 79 79 80 82 84 96 98 97 93 83 96 95 75 75 64 56 59 58 54 48 50 50 56 47 52 42 54 76 43 39 42 63 41 35 32 35 32 33 47 58 59 82 61
79 80 80 81 82 84 97 100 99 99 99 86 70 79 86 84 54 63 57 58 52 61 63 48 58 52 48 66 60 76 51 54 37 45 41 39 45 35 28 36 56 52 61 44
81 82 83 84 84 85 97 100 99 86 98 98 86 77 64 77 72 57 57 66 66 65 75 63 56 46 73 63 71 71 56 59 50 41 35 34 33 34 32 32 38 44 40 42
81 84 84 87 87 88 99 100 98 92 86 75 96 81 80 74 61 63 61 67 55 54 66 57 52 58 80 78 78 86 63 62 56 57 42 35 46 36 31 35 33 33 38 39
83 84 85 86 88 92 99 96 88 85 76 81 87 85 85 68 64 59 54 56 56 61 53 45 44 56 77 84 88 94 90 77 64 67 48 44 66 53 40 37 34 33 40 34
83 84 84 86 88 92 96 96 92 98 93 86 78 67 73 78 63 75 57 54 60 46 34 55 75 76 73 76 72 85 94 83 88 90 72 75 60 37 32 33 30 30 26 26
84 84 85 86 87 91 97 97 94 93 93 80 79 70 67 66 65 68 61 54 47 46 50 76 75 91 88 73 68 72 89 88 97 98 90 62 50 42 34 36 34 28 26 23
86 86 86 84 85 86 97 96 94 95 93 86 72 80 73 80 77 74 69 52 47 54 62 78 87 95 90 89 85 70 78 79 91 100 100 90 60 40 37 33 48 31 27 29
84 85 85 84 85 85 92 99 93 97 100 79 67 78 84 69 68 74 66 63 67 59 80 85 86 79 67 87 92 100 95 94 97 100 99 87 58 49 36 57 55 36 30 31
85 84 85 85 86 86 91 93 94 97 100 94 65 59 79 74 67 78 66 70 75 93 87 87 90 94 75 83 72 92 99 93 98 95 99 95 51 50 50 51 49 49 40 42
83 81 82 84 85 86 84 95 88 85 96 96 90 58 53 56 55 69 67 66 61 78 86 94 87 88 93 79 84 53 87 79 88 76 76 57 60 61 59 58 55 54 55 46
88 85 84 84 84 85 85 95 93 94 98 94 92 89 51 58 75 76 89 83 58 84 79 90 87 84 78 90 79 64 62 64 76 73 56 55 55 59 54 44 46 44 49 56
90 90 88 86 86 83 83 97 93 88 97 99 87 73 65 61 73 80 87 88 85 82 94 88 95 96 74 72 60 62 45 60 64 64 52 49 48 47 41 39 44 44 50 51
94 92 90 87 90 86 89 94 92 80 86 91 98 74 68 56 62 75 84 91 92 93 91 99 97 95 92 89 76 59 50 63 76 74 52 53 38 46 46 50 45 47 47 46
91 89 88 89 90 89 97 99 93 82 84 95 100 79 80 78 66 74 89 86 93 95 95 96 93 82 84 99 91 55 43 43 45 48 39 50 58 62 60 58 58 58 58 57
90 89 89 91 92 95 96 95 95 84 87 99 99 98 92 77 75 84 92 84 92 95 96 96 95 90 81 98 96 61 55 43 46 50 60 69 64 66 60 59 56 60 58 59
89 89 92 91 90 87 90 97 82 82 93 99 100 100 98 94 95 90 92 93 94 94 95 97 94 89 91 97 67 58 52 47 45 57 61 60 60 58 60 58 59 66 68 63
87 91 92 92 96 98 98 87 81 92 96 100 98 96 99 93 98 91 91 92 99 94 98 96 94 97 95 80 75 67 55 47 49 65 60 61 63 64 66 70 68 74 74 74
85 86 94 100 99 86 85 94 99 99 98 97 97 96 99 95 100 100 94 96 97 99 95 94 98 93 66 80 81 81 80 79 62 77 78 78 82 80 79 78 77 80 81 81
96 98 100 99 92 94 98 100 99 100 98 98 95 93 98 95 98 99 98 98 99 98 92 97 93 98 88 78 80 86 85 81 79 78 78 74 81 86 89 89 86 84 84 88
90 93 96 96 96 99 92 95 97 93 89 97 97 97 96 99 96 96 99 95 98 95 92 97 99 99 90 89 91 94 90 89 89 84 88 87 85 86 88 88 89 88 87 89
89 92 97 89 95 90 89 100 99 98 96 97 100 99 96 99 99 97 99 99 92 97 99 98 99 98 94 90 89 91 86 89 87 88 87 88 90 88 89 93 92 92 93 91
98 91 95 97 96 98 99 100 99 100 100 98 97 97 97 100 99 99 99 94 99 98 98 99 99 96 94 93 95 90 93 94 96 91 90 90 91 93 93 95 95 92 94 96
95 89 99 97 99 98 98 98 97 97 98 100 99 99 99 99 99 99 99 99 98 97 97 97 97 95 92 94 94 93 93 94 93 90 93 94 90 90 95 95 93 91 94 94
89 91 96 96 96 95 96 96 97 97 98 99 99 99 99 99 99 98 97 96 95 97 99 97 96 96 95 95 94 95 94 94 94 93 92 92 91 92 95 94 94 95 94 95
92 97 96 99 98 99 98 98 96 94 98 99 99 97 97 98 97 96 94 98 98 96 96 96 96 96 96 96 94 94 94 95 94 94 92 94 94 93 89 93 94 91 92 94

GFSNW_sfc_rhum_087.txt.gz
RH
76 76 77 78 79 80 87 97 99 94 80 99 94 88 58 55 53 49 56 56 48 56 54 52 49 52 53 44 57 66 69 54 49 36 29 30 30 31 38 60 64 70 71 57
77 78 78 78 78 81 98 96 92 96 89 95 93 69 64 59 54 52 63 66 58 57 61 70 58 53 38 41 61 75 82 87 66 50 37 29 33 35 38 53 65 71 75 63
78 78 79 79 80 81 96 99 98 96 97 86 85 77 77 80 67 62 56 58 58 67 66 58 71 63 52 52 64 78 79 94 86 57 46 37 44 34 35 46 68 63 60 50
78 78 79 79 81 82 95 99 98 89 98 97 95 70 69 76 74 69 69 76 72 74 77 74 70 58 48 50 77 66 86 97 75 53 32 30 40 40 39 43 46 52 46 47
78 78 79 81 82 83 99 100 99 97 90 78 97 97 88 70 67 63 70 72 60 68 80 67 65 52 52 75 84 84 83 98 93 63 49 32 32 31 40 45 44 40 40 39
79 80 80 81 84 89 99 97 94 98 91 80 90 86 84 77 62 59 60 60 68 72 67 56 53 53 54 61 71 90 97 98 92 78 53 54 68 50 38 34 42 40 45 41
81 81 82 86 88 90 97 97 97 100 93 96 85 68 73 76 66 74 58 58 64 52 46 54 61 60 55 53 59 72 87 98 99 96 72 82 55 41 37 42 34 37 32 29
83 83 84 86 89 88 98 96 98 97 96 76 82 71 68 73 72 72 65 56 54 57 57 73 79 89 91 82 75 73 74 88 99 99 84 69 62 51 47 49 47 35 33 27
84 84 84 87 89 89 96 96 95 97 98 88 70 77 68 76 80 78 73 57 52 65 69 83 97 90 84 83 87 75 74 77 91 99 98 89 68 44 43 45 64 35 30 36
85 86 86 86 87 88 95 97 93 98 100 78 69 80 79 64 72 83 72 70 78 68 92 96 96 85 65 83 90 99 100 99 98 98 99 87 66 57 54 88 72 48 34 36
86 87 87 87 87 90 96 95 93 97 97 91 66 64 76 74 70 86 70 73 78 92 93 94 87 95 77 72 69 88 94 99 99 99 99 94 52 63 64 59 64 51 43 35
85 85 85 86 86 85 91 99 94 94 98 96 87 84 72 57 52 66 69 66 68 81 88 93 88 91 94 77 80 70 91 74 90 82 81 63 56 58 57 57 56 55 55 43
84 83 83 85 86 85 87 96 95 98 100 99 96 85 69 66 63 66 77 84 57 73 74 90 88 79 77 84 84 66 64 64 85 80 58 60 56 57 65 59 49 44 50 56
88 87 84 84 86 85 86 97 95 88 98 99 89 61 64 63 67 77 73 66 83 85 94 92 92 92 76 79 65 71 56 71 72 70 58 54 44 51 55 50 48 49 46 49
91 90 88 88 84 84 88 94 96 74 79 95 91 85 66 51 62 71 79 75 84 93 89 98 91 93 87 91 90 82 53 55 75 64 48 53 49 41 51 55 52 50 47 48
94 91 90 89 86 83 97 100 97 79 92 93 99 86 84 81 74 77 81 85 83 95 95 96 95 86 89 99 91 62 46 47 53 55 49 55 59 61 60 60 71 65 60 57
90 85 87 90 89 95 97 96 96 85 92 94 98 99 90 78 77 80 94 91 94 93 98 98 92 88 84 99 99 63 58 54 51 58 65 70 63 65 66 65 65 68 66 68
89 88 92 90 91 88 95 98 85 79 92 97 99 98 98 91 97 98 93 97 99 99 97 98 92 90 92 96 76 58 50 52 53 56 56 63 70 70 71 63 64 70 71 68
92 90 89 95 96 98 98 87 79 95 93 98 99 99 99 97 98 96 97 94 100 96 98 98 94 96 98 78 73 89 90 87 82 60 72 74 79 78 71 68 71 77 79 80
88 89 97 100 98 88 88 97 99 97 99 100 99 100 99 96 100 100 98 97 98 99 96 95 100 96 81 83 91 88 85 82 84 81 85 84 83 81 79 79 78 79 81 82
96 99 100 96 82 95 99 99 99 99 100 100 98 96 99 95 98 99 98 99 98 98 91 95 89 88 89 93 96 90 87 82 84 84 81 74 80 86 87 86 83 82 82 86
94 94 96 95 96 99 98 98 99 95 94 98 97 97 98 99 95 98 99 97 97 93 90 98 90 96 93 92 94 92 90 88 86 84 86 84 83 83 84 85 87 88 86 89
83 87 96 99 99 98 94 95 99 99 98 100 97 98 93 96 95 97 95 97 97 96 100 95 96 98 94 93 92 93 89 89 89 89 86 86 87 85 87 91 90 90 92 90
94 91 98 93 95 96 96 96 99 99 99 99 96 99 94 99 98 95 95 93 98 98 93 93 99 95 96 94 92 91 94 93 95 91 89 90 90 93 93 94 90 90 94 96
94 88 99 97 98 97 98 97 96 95 97 100 99 99 96 99 99 97 96 98 96 94 93 97 97 95 93 94 94 92 93 94 95 95 96 96 96 94 94 94 93 90 92 93
89 90 95 96 97 96 96 96 97 97 97 99 99 99 99 99 98 98 96 97 97 97 96 97 96 96 96 96 95 95 93 94 96 96 95 95 94 93 95 94 94 94 93 94
91 97 96 97 98 98 98 98 96 95 98 99 99 97 96 98 96 95 94 97 98 98 97 96 96 96 96 96 96 96 94 95 95 95 94 94 94 92 87 93 94 92 92 94

GFSNW_sfc_rhum_090.txt.gz
RH
71 72 72 75 76 78 84 95 100 96 88 98 97 83 69 56 54 52 57 56 52 49 52 59 52 55 48 32 31 55 88 96 80 49 32 32 36 37 35 49 58 76 68 47
71 72 74 76 78 79 98 96 94 98 95 95 93 67 63 60 61 56 63 73 62 68 72 76 66 57 49 55 64 77 65 96 91 62 43 39 40 37 38 53 62 50 69 57
70 71 74 76 78 77 96 99 99 99 99 94 79 81 78 76 66 62 58 64 62 66 74 65 76 71 57 53 46 75 71 82 84 93 86 73 69 39 34 45 71 55 53 53
68 71 73 76 77 78 94 98 98 88 94 97 94 84 71 75 76 70 68 76 67 67 75 78 76 64 62 54 52 76 78 91 70 76 74 83 88 52 34 38 45 55 51 49
77 76 76 76 77 79 97 99 98 96 82 84 85 86 83 77 66 61 83 90 69 75 90 77 77 66 66 62 79 77 92 90 86 89 70 74 76 46 41 46 46 51 49 49
77 78 78 78 78 81 96 95 95 95 80 82 87 82 80 75 65 71 57 68 82 85 75 64 61 64 65 64 66 68 90 99 96 89 78 88 77 49 37 38 48 46 52 44
79 79 79 79 80 82 94 97 98 99 94 95 82 70 77 77 69 78 64 64 85 66 53 61 65 70 67 64 65 62 75 98 100 98 91 97 63 42 34 41 38 42 41 38
80 80 80 80 81 81 96 96 99 98 95 85 78 69 68 64 66 71 70 56 50 55 63 99 97 86 92 86 70 65 62 79 98 98 97 87 74 53 51 52 44 43 41 41
83 83 82 82 82 82 94 97 95 99 99 80 64 91 79 86 85 80 76 59 55 62 90 97 95 93 81 81 77 68 67 72 92 99 99 88 72 61 56 49 73 44 44 46
88 88 86 85 86 86 94 97 93 98 100 82 66 80 80 64 70 81 71 71 78 67 99 98 95 88 67 84 89 98 96 92 95 92 96 90 69 67 65 81 71 52 55 44
84 87 86 87 87 87 95 96 94 97 100 96 71 65 70 69 68 84 72 81 89 95 98 98 94 94 79 73 57 69 93 98 99 99 98 93 58 76 95 66 71 60 56 55
87 87 87 86 88 90 92 98 94 94 99 98 84 70 54 53 52 61 68 78 76 85 90 94 90 94 95 77 86 63 86 86 88 91 85 63 57 52 55 66 67 66 58 57
86 86 87 87 85 84 91 97 96 98 100 99 98 89 68 73 68 56 76 84 68 84 82 97 94 88 81 88 86 72 64 65 80 82 58 58 57 56 58 57 60 66 53 62
87 86 84 85 86 86 85 98 96 95 99 100 95 80 79 65 71 72 78 68 78 79 86 92 99 96 77 82 64 77 67 70 71 75 59 53 49 50 49 55 58 59 61 58
91 90 87 84 85 85 88 94 96 84 88 97 89 82 69 55 69 72 68 74 82 92 96 100 99 94 94 91 91 88 63 59 76 74 56 61 56 54 57 62 64 72 65 56
91 91 89 88 84 85 95 100 98 81 77 97 98 85 86 71 62 70 73 70 80 95 98 99 95 80 89 99 96 63 47 49 52 52 62 63 58 69 72 75 73 70 67 73
90 91 89 90 88 94 98 95 95 87 88 99 98 91 92 82 77 80 86 79 84 87 96 98 89 94 90 99 88 74 60 63 62 58 62 56 63 79 74 74 70 71 73 69
89 91 90 91 91 90 96 97 86 79 96 96 98 96 99 90 94 91 96 95 90 96 98 98 98 90 95 97 82 65 54 51 53 56 58 57 75 75 70 68 71 78 81 81
90 91 92 96 97 99 97 87 80 94 95 98 98 98 99 96 97 97 98 97 99 99 99 99 98 99 98 82 70 70 62 75 67 77 74 79 82 77 73 73 73 82 83 81
91 90 98 100 99 90 88 97 99 98 98 99 99 98 99 100 100 100 100 99 99 99 98 97 99 93 82 71 69 69 87 82 79 92 89 88 88 85 82 82 79 82 84 84
98 99 99 97 81 95 98 99 98 99 99 98 96 96 99 99 99 99 99 99 98 97 91 95 92 87 88 90 96 95 90 84 82 82 86 83 82 86 87 87 84 82 82 85
94 91 91 95 96 99 92 99 99 96 94 98 99 98 98 100 98 100 99 98 94 95 93 97 80 90 94 93 95 93 90 90 87 83 85 84 82 82 83 84 86 87 87 90
84 90 97 96 98 96 97 100 99 97 98 99 99 99 100 100 98 98 96 95 91 95 99 84 90 95 95 93 91 92 88 88 87 87 86 86 86 84 85 90 89 90 92 90
93 92 94 94 95 98 95 97 98 98 99 97 96 96 96 96 96 95 95 95 99 99 98 94 98 96 96 94 91 89 94 93 95 92 89 90 90 93 93 92 90 90 93 94
94 88 98 97 98 97 97 98 97 96 98 99 99 98 93 98 98 96 94 99 95 92 90 98 96 95 94 94 92 93 93 95 96 95 94 93 91 92 94 95 95 94 94 94
88 90 96 96 97 97 97 97 97 96 96 99 97 97 98 100 98 99 96 96 96 98 99 99 95 95 95 96 94 95 96 96 96 96 95 94 94 94 95 95 95 95 94 94
90 97 96 97 97 98 98 98 96 96 98 99 98 96 97 97 97 95 94 98 98 99 99 98 97 96 96 96 96 96 95 95 96 95 94 95 95 93 89 93 95 92 92 93

GFSNW_sfc_rhum_096.txt.gz
RH
78 84 75 74 76 77 83 82 91 83 66 88 71 53 39 42 29 30 27 27 31 29 24 22 18 18 14 14 21 24 36 44 49 42 31 31 35 28 23 32 31 32 34 28
78 72 71 76 77 74 96 100 69 90 83 77 64 47 46 42 39 34 28 28 26 24 28 27 22 24 24 30 41 43 40 52 50 43 38 40 42 38 41 42 38 40 48 32
76 78 73 82 77 74 91 100 95 89 97 80 53 48 46 50 43 44 37 37 36 38 43 36 38 41 41 42 40 59 48 43 40 35 39 34 44 42 38 45 60 41 34 28
72 85 79 80 78 78 91 99 79 57 87 85 91 55 50 48 51 46 42 47 43 39 39 36 40 38 38 34 42 41 41 53 38 36 31 27 29 29 29 39 39 50 42 35
67 70 77 84 79 77 97 98 87 64 44 46 59 68 65 55 49 48 47 53 42 47 58 41 45 58 51 53 45 52 60 57 58 55 40 38 38 28 26 28 32 32 33 36
74 70 77 82 79 79 99 91 67 67 51 51 58 56 61 52 46 49 43 45 52 54 56 72 88 74 65 59 57 60 64 61 64 56 44 51 63 43 31 25 23 36 45 33
70 75 76 84 79 79 84 91 58 85 72 55 42 42 42 46 46 56 42 44 57 47 70 74 72 72 75 64 57 52 66 68 72 71 64 82 33 30 28 30 34 33 36 33
72 73 75 76 77 78 91 72 90 78 81 45 46 48 48 45 44 48 46 42 44 77 94 99 89 87 74 60 51 50 52 58 74 72 50 36 31 26 42 46 36 36 47 32
78 77 77 78 78 77 87 87 76 90 93 61 41 46 47 55 54 55 54 46 57 92 99 99 86 72 53 46 50 49 45 60 69 65 67 58 24 35 42 38 45 51 48 52
81 81 80 80 79 79 85 84 82 90 97 57 79 95 69 49 51 71 65 68 82 92 99 97 85 72 41 60 61 90 88 91 91 77 80 44 26 34 45 62 56 51 55 53
83 83 83 82 81 80 88 85 84 86 93 72 51 50 67 91 83 89 89 80 71 95 100 90 70 71 46 45 36 58 74 91 91 83 93 78 41 68 93 83 61 51 59 59
84 84 84 85 84 83 84 94 83 86 91 80 62 55 53 52 43 63 69 64 72 81 78 76 63 70 65 47 54 28 47 38 48 62 65 42 41 66 66 62 57 45 69 70
88 89 88 87 87 86 88 97 95 95 99 100 90 79 71 56 52 48 76 61 51 63 67 93 82 79 49 70 52 43 31 31 48 55 36 50 60 68 63 47 41 54 52 53
84 84 84 90 90 90 90 98 96 97 99 99 86 64 66 52 55 50 52 53 48 55 72 99 98 86 65 56 50 51 35 34 38 40 35 34 34 38 36 33 46 55 59 56
87 88 86 82 80 87 93 96 96 93 79 97 72 65 62 55 56 60 55 60 66 80 93 100 93 65 65 60 60 57 38 39 43 46 34 36 35 31 34 37 44 53 64 59
88 87 87 85 82 88 98 100 97 90 88 99 87 54 62 66 64 65 60 61 70 83 99 99 97 67 72 81 59 37 33 32 33 38 32 35 37 36 36 45 51 59 60 61
90 89 88 87 86 93 98 95 87 91 94 99 98 71 63 59 68 67 68 66 85 94 99 100 94 62 72 78 75 40 34 32 31 30 32 40 36 37 39 49 54 59 59 64
92 90 90 87 86 93 96 85 88 82 96 96 100 81 78 63 72 76 67 78 80 96 99 98 98 84 97 97 50 42 36 34 34 34 33 36 36 36 45 51 60 64 69 73
89 89 92 96 98 99 97 88 86 91 84 99 100 91 90 79 67 60 72 66 88 70 94 87 75 77 78 47 40 37 37 40 39 35 40 39 42 50 54 60 64 71 78 80
88 96 100 100 98 88 92 98 99 98 94 93 92 68 96 80 95 98 97 86 76 91 73 64 99 70 44 38 38 40 50 50 49 51 51 41 56 62 62 61 63 69 74 79
97 100 100 97 81 87 97 100 100 100 100 97 69 67 84 85 96 97 87 99 88 86 67 79 66 59 48 39 44 58 66 63 61 60 60 57 62 64 63 68 70 72 74 78
93 94 90 88 95 100 100 99 96 82 70 84 88 77 66 91 88 97 99 97 100 97 81 92 65 78 76 72 74 75 76 75 72 63 63 63 62 60 62 66 72 76 79 88
63 78 99 90 98 100 90 89 87 90 81 92 99 99 92 98 93 100 100 100 95 77 99 75 80 86 82 82 80 78 77 84 79 76 67 66 67 67 71 82 81 87 89 88
82 98 91 92 95 89 85 81 83 94 96 99 88 98 94 97 100 100 99 98 92 98 93 83 89 82 79 78 82 77 81 89 92 86 83 84 85 88 89 92 91 90 93 94
85 79 93 89 87 86 90 92 89 89 92 100 100 99 100 100 100 98 95 99 95 82 88 88 83 80 80 81 83 86 88 91 92 93 94 94 92 91 93 94 94 91 94 92
75 80 85 88 88 93 92 93 95 88 91 96 100 100 97 98 99 96 94 92 83 91 85 82 77 82 86 87 87 90 90 90 92 94 93 94 94 93 94 94 94 94 93 94
80 89 86 86 89 92 92 91 89 87 95 100 99 99 96 86 91 86 80 89 88 85 82 81 87 88 88 87 88 91 91 91 90 90 89 93 94 92 91 94 94 93 93 94

GFSNW_sfc_rhum_102.txt.gz
RH
67 70 71 72 74 74 78 98 100 56 75 98 74 65 39 37 22 16 17 21 20 21 18 18 18 16 15 10 12 15 16 25 39 27 28 26 35 26 26 38 39 39 42 37
68 70 72 72 77 79 92 100 80 68 81 97 79 48 38 30 26 22 22 23 20 20 20 24 21 20 16 13 15 16 31 37 40 29 19 17 26 27 28 26 30 37 55 44
67 68 71 75 73 77 96 100 95 79 97 71 64 80 52 32 25 24 22 23 22 24 25 21 24 23 18 18 17 55 43 42 49 47 27 35 48 38 35 32 80 44 32 25
68 67 68 72 73 71 96 100 89 54 83 81 63 53 71 75 43 29 26 28 28 29 33 29 27 23 22 19 34 33 36 46 35 30 24 21 25 29 32 34 33 60 45 34
70 68 68 70 74 76 99 100 99 56 61 79 73 57 52 47 39 30 50 33 26 28 32 29 29 24 27 28 24 26 30 41 33 37 27 23 23 20 25 26 24 23 24 25
68 72 69 72 75 80 99 96 83 96 63 51 55 51 65 39 30 40 34 39 61 54 40 49 51 52 49 50 57 64 63 49 40 50 33 28 38 23 21 22 20 21 26 21
68 75 75 77 78 86 96 78 73 94 74 51 48 61 44 51 42 43 35 41 48 38 41 45 44 43 44 40 41 42 66 86 65 69 54 71 33 17 17 21 18 15 16 14
71 74 76 76 77 78 93 92 97 80 81 46 41 43 39 34 40 59 62 38 35 59 57 70 57 55 54 50 42 40 43 55 79 73 55 37 25 20 33 56 48 57 64 53
75 77 76 76 75 79 88 76 85 94 96 61 44 48 47 54 50 40 33 26 52 70 71 89 74 70 71 87 43 36 40 48 65 74 68 59 28 30 25 29 55 62 54 66
75 75 77 78 77 78 86 72 82 96 90 53 50 66 72 54 55 61 72 68 58 60 94 89 73 65 47 72 64 94 64 71 80 82 89 53 25 24 25 50 74 73 55 50
76 77 78 79 78 75 84 70 72 88 83 61 50 46 58 74 68 76 94 78 66 98 98 83 63 66 55 57 43 99 82 91 87 74 79 76 33 37 59 66 50 55 56 53
80 80 82 81 79 79 79 69 58 77 96 63 53 46 40 40 52 74 73 87 82 99 98 84 96 91 79 73 77 57 95 52 71 57 59 44 38 42 50 50 54 53 54 50
84 84 81 82 81 78 82 67 63 88 94 90 69 60 43 38 46 46 68 56 46 55 91 100 98 94 87 96 71 77 51 58 64 72 52 59 47 34 39 41 44 41 42 45
84 84 84 84 82 83 83 92 78 87 92 91 64 37 51 42 42 42 51 60 54 60 74 99 100 89 59 82 83 88 62 42 45 47 50 45 42 39 40 38 37 44 39 48
87 84 83 86 83 84 88 92 88 84 77 81 80 63 54 38 44 49 48 57 69 79 93 100 96 64 70 65 60 62 38 39 48 68 58 54 56 36 31 37 35 43 50 63
89 86 84 87 87 85 94 100 90 83 78 96 84 48 56 53 50 55 54 57 66 85 98 99 76 58 72 83 61 37 34 43 38 42 34 32 32 29 26 30 46 48 58 66
91 85 84 85 87 94 98 94 82 84 88 100 96 70 48 49 58 66 66 62 74 92 99 99 78 66 70 100 79 44 38 33 30 27 30 35 30 36 31 29 49 61 66 72
93 88 84 85 85 92 98 89 85 88 98 100 100 89 68 51 80 82 62 78 79 98 99 97 88 63 72 88 49 38 31 28 28 29 26 36 35 36 28 31 44 55 70 77
94 87 86 93 97 100 97 91 89 93 94 100 100 86 82 60 71 72 72 72 94 74 92 76 60 68 79 51 41 38 33 33 31 27 32 36 36 50 39 41 44 65 72 78
92 94 100 100 99 89 90 99 100 100 98 99 93 64 86 68 81 87 90 80 80 86 71 50 79 69 45 37 36 35 35 35 43 47 50 50 50 47 53 48 52 62 72 80
98 100 100 97 78 89 99 100 100 100 99 88 71 61 77 62 94 94 75 97 83 83 57 68 66 60 78 62 64 65 63 57 55 54 54 51 54 55 55 56 69 73 77 80
90 94 92 94 95 100 100 100 93 85 68 66 77 66 64 81 72 94 95 88 96 87 81 96 68 94 69 65 65 65 65 68 64 60 62 60 60 63 66 73 76 80 83 92
69 84 100 95 100 99 92 88 83 81 80 77 81 95 98 84 81 100 100 98 83 66 94 71 90 77 70 68 70 64 59 75 75 71 74 77 83 82 84 86 85 89 93 93
98 100 99 97 97 85 80 74 75 92 88 82 80 91 83 91 98 97 86 84 80 82 86 82 90 83 72 70 71 70 72 77 85 82 82 88 90 93 96 96 93 92 93 95
92 86 91 90 88 90 96 99 94 94 90 79 87 83 83 100 99 93 88 97 89 83 92 93 90 85 77 74 76 79 83 87 84 89 92 93 94 94 96 96 94 92 92 92
75 83 86 93 91 96 96 100 97 92 96 99 86 100 98 98 91 93 83 76 86 92 92 89 75 83 83 82 82 86 86 88 91 90 91 92 93 93 95 95 94 94 93 93
79 88 90 91 89 95 96 93 92 91 98 100 96 99 91 88 85 94 86 92 92 84 87 81 84 86 87 88 86 88 88 88 88 89 89 91 93 93 90 93 96 94 94 94

GFSNW_sfc_rhum_105.txt.gz
RH
64 65 68 71 71 74 80 94 99 77 85 99 99 94 61 50 41 36 37 31 31 33 31 29 29 29 25 19 20 22 27 33 44 31 23 44 59 68 57 40 47 56 55 51
63 64 70 71 75 78 96 98 87 80 90 98 96 66 54 47 46 41 38 33 28 31 34 39 32 31 26 22 25 32 31 56 75 50 29 25 46 49 61 70 41 44 64 55
65 64 66 72 76 74 96 99 100 94 97 94 95 96 81 81 51 41 32 32 29 35 39 32 39 33 29 32 30 60 49 49 56 70 59 43 44 32 36 78 96 90 68 52
67 69 68 68 69 78 96 100 96 76 96 95 90 82 72 74 87 62 39 34 34 37 44 43 42 36 32 28 34 42 47 60 48 41 36 34 32 31 26 29 36 83 66 71
63 69 70 70 70 77 99 99 99 92 94 74 78 88 77 64 52 98 83 80 56 55 46 40 60 69 67 67 61 61 51 61 50 50 35 30 35 31 28 26 24 28 29 33
62 68 72 71 71 79 100 97 88 98 79 95 84 90 63 63 79 60 37 60 66 64 58 65 64 67 67 67 70 73 76 70 70 67 43 39 51 39 30 25 20 24 31 26
70 68 73 76 77 78 98 98 96 99 91 85 76 47 50 57 80 79 54 51 68 63 53 62 61 61 54 56 55 56 75 86 90 78 73 82 43 33 26 24 21 28 61 67
70 73 76 78 78 79 97 96 99 100 97 66 56 57 67 56 53 59 56 52 54 64 68 91 77 74 68 57 48 52 53 70 92 96 81 68 43 34 44 47 58 73 68 68
73 76 78 78 77 77 94 96 96 98 100 82 53 89 92 91 78 77 62 49 68 81 96 95 94 84 82 80 86 46 48 59 77 93 90 82 46 47 40 38 79 78 70 74
76 76 76 78 79 76 92 96 91 97 99 80 66 88 82 79 94 98 79 92 80 79 92 98 93 85 48 86 96 98 71 75 82 91 94 79 46 38 38 68 86 77 70 68
73 74 75 76 76 80 88 92 89 96 99 75 64 63 74 80 85 96 98 92 97 98 96 98 89 92 72 68 54 84 96 86 91 88 94 86 47 49 64 81 68 68 68 65
76 76 76 73 74 75 81 97 79 90 98 92 75 68 65 63 59 84 83 97 99 100 100 99 98 97 94 92 94 97 98 78 88 80 77 77 74 82 80 65 64 67 64 60
78 76 74 72 76 76 81 92 83 92 99 93 83 70 58 51 54 60 88 82 60 83 95 99 100 99 99 97 94 94 97 86 100 88 76 77 72 67 62 55 58 50 50 58
80 81 81 79 77 77 78 95 87 94 98 100 81 53 69 56 55 59 67 63 68 76 84 96 99 99 79 91 79 80 70 89 98 96 82 73 74 66 51 52 48 47 59 79
81 79 83 81 80 79 88 96 96 93 92 97 96 82 66 62 62 63 58 64 75 89 97 100 99 91 84 93 85 86 58 74 84 99 84 88 69 49 56 56 55 62 73 77
81 85 85 82 84 83 96 100 95 92 87 100 99 72 65 61 68 64 64 71 77 90 99 99 92 69 85 100 92 45 43 42 42 54 50 53 44 45 50 60 71 70 73 75
90 90 85 86 86 94 97 95 94 83 90 100 99 94 65 52 56 79 80 73 85 92 98 99 92 80 81 99 90 50 46 44 41 38 39 53 53 59 51 66 71 74 75 79
94 91 88 86 87 87 93 93 92 83 96 99 99 94 88 65 87 93 86 93 89 99 98 97 96 86 91 96 67 54 44 38 39 38 46 59 51 53 59 62 68 77 85 86
95 92 86 95 98 100 98 81 92 97 97 99 98 98 91 74 83 85 86 89 100 98 98 98 93 90 91 68 62 61 60 59 58 50 54 53 56 59 60 64 69 82 87 88
94 93 100 100 99 87 88 98 100 100 100 99 96 91 93 83 97 99 100 95 97 98 94 82 94 90 76 70 74 75 74 66 65 73 74 69 72 70 69 72 70 80 86 89
98 100 100 98 84 95 100 99 99 99 99 96 89 87 94 83 94 97 97 96 97 92 86 89 93 97 90 67 68 70 76 75 70 70 71 72 81 85 85 84 85 87 86 86
93 94 94 95 97 100 99 98 100 98 87 92 96 90 84 94 90 96 96 95 94 92 87 96 98 95 76 74 74 71 80 80 76 74 78 83 82 83 84 86 90 91 90 92
74 93 100 98 100 99 99 98 97 98 94 90 96 98 98 95 96 99 98 94 90 85 98 97 94 90 77 75 73 73 72 80 76 76 78 82 85 88 88 90 89 91 93 93
99 99 99 98 98 95 95 97 95 99 97 95 96 99 98 99 95 92 86 91 88 92 97 96 95 91 83 76 77 77 82 84 93 88 83 88 89 93 95 95 96 94 94 95
97 90 98 98 98 98 99 100 98 98 98 95 95 98 95 98 95 94 94 89 87 96 99 98 97 91 90 83 85 89 89 94 95 95 97 97 95 94 96 95 95 94 95 94
86 92 96 97 95 99 98 98 99 97 99 99 95 91 93 97 94 91 86 91 97 99 98 98 95 93 93 96 94 96 96 96 98 98 97 97 96 95 96 94 94 95 94 94
88 98 96 98 96 98 99 98 98 98 99 97 94 91 82 96 97 97 97 98 99 99 99 98 96 97 97 97 96 96 96 96 97 97 96 96 96 94 91 94 96 94 95 94

GFSNW_sfc_rhum_108.txt.gz
RH
71 66 64 67 70 75 84 96 93 76 86 98 97 93 66 61 56 49 49 47 46 51 36 34 38 35 32 28 28 29 34 36 40 34 24 30 47 58 66 91 70 77 66 53
66 64 63 64 72 77 97 99 91 80 88 98 97 88 74 61 59 55 53 49 46 46 37 42 37 43 33 30 34 39 32 46 69 36 36 45 56 44 40 75 91 88 87 55
64 65 66 65 71 76 95 99 99 94 97 89 92 89 82 74 53 70 59 58 49 51 44 41 46 44 40 37 30 58 49 51 51 56 61 48 41 34 34 75 95 89 76 73
62 63 66 73 68 74 96 99 96 90 98 95 93 88 87 84 76 47 61 65 60 57 47 48 46 44 60 52 61 54 49 57 53 48 44 40 39 37 33 34 44 79 59 46
66 64 64 67 73 75 98 99 100 94 97 82 83 79 78 77 68 76 84 85 74 74 73 50 56 70 76 75 65 68 69 69 58 58 49 44 49 41 38 32 30 29 31 34
68 71 63 70 69 77 98 97 94 97 84 90 92 83 79 87 56 60 64 94 98 89 61 73 70 69 71 75 77 74 74 73 74 63 56 58 66 48 41 35 29 29 35 33
69 72 70 73 75 80 96 95 95 98 95 86 75 76 69 74 63 76 62 61 68 57 61 66 63 64 67 70 72 68 77 79 84 84 74 79 40 39 38 36 31 40 58 71
73 74 74 77 78 75 97 98 99 100 97 90 77 85 80 78 72 66 63 61 56 75 77 86 78 73 71 65 60 62 64 75 96 92 86 58 46 40 60 66 54 81 81 78
76 74 75 78 76 74 96 96 96 100 99 87 93 79 90 96 95 85 78 72 78 78 96 94 93 85 76 82 76 59 58 66 78 97 90 88 62 52 43 54 85 80 79 82
77 79 78 80 74 74 94 98 93 99 100 85 80 91 86 81 93 96 94 90 93 87 98 97 98 88 60 77 91 96 94 84 88 82 94 82 51 37 38 90 85 76 70 71
75 72 78 81 80 78 92 97 96 97 100 89 70 69 82 84 90 96 88 86 94 94 97 90 91 96 82 88 65 89 97 96 94 86 96 86 64 75 72 80 75 75 74 69
74 72 74 73 74 75 82 97 88 95 99 98 89 80 71 70 68 82 88 88 98 100 98 97 97 97 96 96 95 98 98 98 90 80 76 69 80 82 88 81 67 68 67 60
71 72 71 72 73 71 79 93 89 97 98 93 92 80 60 59 65 67 89 96 78 96 90 97 96 96 95 97 90 93 99 96 99 86 90 92 85 76 71 62 58 54 55 76
77 77 78 76 75 69 73 95 94 95 96 99 88 64 74 62 64 67 65 69 68 80 94 96 94 96 82 93 78 84 96 99 100 96 98 91 78 83 72 66 59 61 80 88
75 75 77 76 78 77 85 97 95 93 91 96 97 81 53 51 69 71 71 76 84 95 95 99 96 96 97 90 95 92 78 83 84 96 90 86 74 67 67 63 69 79 80 84
80 78 75 75 78 81 98 100 99 96 95 100 98 79 74 67 75 74 76 74 76 91 97 96 99 82 89 99 96 61 46 43 47 56 50 57 54 54 68 77 76 79 81 82
82 80 81 78 88 95 98 93 89 85 92 100 98 95 75 69 60 85 84 78 89 92 97 99 98 85 87 98 98 54 48 48 49 49 55 66 63 78 71 72 76 80 80 80
85 86 87 87 88 87 93 94 90 82 96 99 99 94 91 70 89 93 91 97 97 99 99 97 96 90 94 98 78 78 74 64 62 61 63 62 61 68 72 70 74 83 87 86
91 92 89 96 98 100 95 85 89 97 95 98 97 98 92 78 86 89 95 95 99 98 99 98 97 94 98 96 89 88 84 80 77 67 67 66 72 70 71 70 76 87 89 86
94 96 100 99 99 84 83 96 99 100 100 100 98 85 98 84 97 100 100 99 99 99 95 88 100 97 98 88 79 80 81 78 78 86 90 87 89 88 85 82 80 86 88 84
98 100 100 96 84 96 100 99 99 99 98 97 86 91 96 86 94 98 99 98 98 96 87 94 96 97 92 80 81 77 79 79 77 78 79 83 88 88 91 89 89 87 86 86
92 92 92 96 97 100 99 98 98 97 93 95 97 95 89 94 94 97 98 96 93 92 91 99 96 94 86 76 75 81 81 80 77 74 78 80 82 87 87 85 86 87 86 92
80 94 99 98 100 99 97 97 99 100 96 96 98 98 96 96 98 99 97 97 95 89 99 95 92 90 80 78 80 75 74 81 78 76 77 83 86 86 90 90 90 93 93 94
99 99 98 96 98 96 94 91 91 94 98 96 96 98 96 99 95 96 94 93 96 96 98 96 96 92 86 84 81 77 81 89 96 91 87 89 91 93 94 96 96 95 95 96
99 94 99 98 97 99 100 99 98 98 99 96 97 97 96 99 95 88 94 89 91 96 98 99 96 98 95 93 90 98 95 97 98 98 99 99 97 96 96 96 96 94 95 95
89 92 96 99 95 98 98 98 99 97 100 97 94 94 94 99 96 90 82 94 96 97 100 99 98 98 98 98 97 99 97 98 99 100 100 99 98 98 97 95 95 95 94 95
92 98 98 98 97 98 99 98 98 97 99 97 90 91 85 95 95 96 96 98 98 99 100 99 98 99 100 99 98 99 97 97 97 99 98 98 96 93 91 94 96 94 95 94

GFSNW_sfc_rhum_114.txt.gz
RH
65 65 67 62 64 76 85 94 91 74 90 89 94 95 81 64 67 61 67 69 71 72 68 68 65 61 41 32 38 39 41 47 46 34 38 41 68 78 80 83 94 85 89 82
66 65 64 64 64 73 97 100 98 86 81 97 98 88 81 72 69 60 73 72 63 62 73 77 77 67 43 40 41 46 50 53 45 44 50 42 53 41 62 80 89 87 93 70
69 65 62 62 64 78 95 98 95 89 95 81 89 97 88 83 65 69 66 68 66 71 76 70 79 74 52 53 52 61 56 56 47 44 44 44 37 40 40 76 94 71 71 51
68 64 61 59 66 73 95 97 94 87 99 95 95 90 82 81 81 71 73 77 75 76 95 84 82 67 57 52 59 59 62 57 50 50 47 48 47 48 48 49 54 67 36 35
64 61 63 61 64 77 97 98 98 93 97 89 91 82 85 70 63 85 89 93 76 87 96 86 96 65 81 62 65 69 64 67 68 61 55 54 58 58 57 55 49 48 43 43
66 63 66 67 67 79 98 98 94 94 85 89 95 85 78 81 81 80 88 98 98 98 84 92 79 71 73 71 71 76 73 70 75 58 60 58 57 45 48 50 49 48 53 41
65 64 69 71 68 79 96 94 98 99 94 92 83 79 80 97 93 96 74 73 89 73 75 76 71 72 74 81 83 75 78 84 82 82 70 75 36 42 39 46 42 42 39 37
64 66 71 72 72 80 95 98 98 98 99 88 78 82 94 83 77 78 78 72 71 82 91 84 75 72 61 58 71 82 77 78 92 89 84 50 42 32 50 82 74 64 64 64
64 71 72 75 75 76 95 98 96 99 99 89 75 91 81 95 96 87 74 74 80 86 93 93 88 88 72 78 68 70 85 77 78 90 89 82 45 51 69 78 76 82 94 94
67 70 73 74 76 73 94 97 92 98 98 92 86 94 92 86 91 98 87 90 88 86 98 98 97 93 70 81 87 95 96 97 94 91 95 69 50 42 57 83 80 93 84 88
70 71 74 75 75 74 91 93 94 96 99 94 78 76 85 88 90 97 83 87 87 95 96 96 94 95 92 95 70 97 98 98 97 96 96 86 83 84 89 94 88 85 86 82
72 73 73 76 74 72 85 97 92 94 99 93 90 85 80 80 78 89 91 86 92 98 98 98 98 96 93 94 92 100 98 98 96 90 78 89 92 89 89 84 91 85 68 66
74 73 72 74 74 78 88 94 96 99 100 95 95 83 62 77 79 71 93 92 83 94 91 99 98 99 92 96 92 95 97 100 99 99 91 94 91 86 81 90 93 82 97 93
74 72 74 74 76 76 81 98 92 98 100 99 85 66 77 68 75 85 76 72 79 89 90 94 98 96 82 91 79 91 98 100 96 99 100 92 81 82 82 86 84 88 83 89
76 73 72 76 69 70 87 96 95 91 93 99 95 85 58 60 68 84 86 84 86 93 95 98 94 97 95 93 96 97 84 98 99 98 98 99 97 91 82 86 87 83 83 89
72 69 70 70 71 75 95 100 98 94 90 100 97 81 83 74 74 79 87 84 93 94 97 96 95 90 94 98 96 85 81 78 92 98 83 89 96 82 79 87 87 85 88 82
75 74 72 71 75 94 99 98 88 87 91 100 95 95 80 77 84 93 96 86 93 94 98 99 96 94 96 94 92 90 82 76 97 82 81 86 78 89 81 82 88 86 81 80
73 72 74 77 73 82 98 93 89 83 98 98 96 94 94 76 90 93 93 97 98 99 97 99 99 95 99 98 93 84 79 78 76 77 76 80 75 78 76 70 75 83 88 85
75 75 77 93 98 100 99 85 88 95 94 96 94 95 94 84 90 92 98 98 99 98 99 98 99 99 98 94 90 87 89 87 85 78 77 77 83 84 80 83 87 89 88 85
79 92 100 100 99 85 90 99 100 100 100 100 97 91 97 92 100 100 100 100 99 100 98 98 100 96 92 90 89 88 80 74 75 85 87 86 86 88 89 87 85 83 84 85
99 100 99 95 87 97 100 98 99 99 99 97 92 90 90 86 96 98 99 99 99 98 92 99 97 96 92 87 89 83 81 80 73 72 74 74 83 87 89 87 86 88 90 90
94 94 94 96 99 100 98 92 94 89 89 94 88 91 86 92 94 97 99 98 96 95 96 99 96 93 89 82 87 79 81 77 72 72 80 77 75 83 86 86 86 89 91 95
92 96 100 99 99 98 97 96 96 93 96 97 98 98 97 98 97 98 97 98 95 90 99 92 90 91 85 89 84 80 78 78 73 74 75 77 78 80 87 87 91 94 95 96
100 99 98 94 99 94 93 91 92 93 97 98 99 97 99 100 98 99 98 94 94 99 98 96 97 93 93 92 89 83 84 83 94 87 82 87 90 93 96 97 97 96 97 97
99 96 98 99 94 99 99 98 98 99 97 98 99 98 97 99 98 95 94 90 94 97 97 98 93 87 94 95 88 96 92 95 96 97 99 99 98 97 97 97 97 96 96 96
88 92 96 99 96 99 98 99 100 98 99 99 98 98 98 98 96 96 90 94 97 96 98 99 99 98 99 99 97 98 97 97 99 100 100 100 99 100 99 97 97 97 96 96
91 99 97 97 97 99 99 98 96 95 100 99 96 93 89 96 98 98 96 98 98 98 98 99 99 97 99 100 99 100 97 97 99 98 98 100 98 96 94 98 98 96 96 96

GFSNW_sfc_rhum_117.txt.gz
RH
68 68 69 64 63 74 81 92 92 69 87 91 94 81 76 63 63 54 54 66 71 71 63 62 60 55 46 38 37 32 37 46 46 35 41 44 58 72 68 57 68 68 57 44
69 68 66 66 64 73 96 98 91 80 80 94 88 75 74 65 66 59 63 67 61 58 60 67 61 63 50 44 46 39 45 53 52 57 47 38 38 30 59 66 64 69 64 35
66 69 66 63 68 76 94 96 92 84 94 76 83 91 79 73 59 57 54 60 61 66 68 61 75 65 51 54 45 57 53 46 48 58 50 38 38 33 32 56 56 47 41 34
69 66 63 61 69 77 94 96 92 84 97 85 82 78 72 74 74 60 69 74 73 81 91 73 70 62 65 53 47 56 52 47 40 36 37 40 39 36 35 36 32 39 26 25
70 64 64 63 71 76 96 99 94 91 82 82 81 76 72 68 70 84 83 91 73 82 92 93 95 95 66 58 50 65 56 47 52 52 42 37 43 41 44 42 39 38 35 35
66 64 67 67 74 80 95 97 89 90 81 82 82 77 70 72 88 71 76 100 99 93 88 78 76 83 79 73 76 63 62 56 49 44 37 42 51 40 38 36 34 36 35 27
67 65 66 69 75 77 94 95 96 96 84 82 74 70 68 87 81 90 70 65 71 58 65 80 74 82 80 76 74 69 64 67 63 59 54 63 30 31 32 35 32 33 34 33
67 67 67 71 73 78 94 97 96 95 96 77 71 78 83 72 72 78 72 66 58 76 88 81 67 61 54 48 58 64 71 66 74 75 60 40 34 27 27 35 35 46 58 65
68 68 70 73 74 78 95 95 95 97 97 76 70 86 77 84 81 74 72 64 72 80 84 83 83 76 64 67 63 67 72 76 72 78 75 74 34 50 48 53 51 79 86 94
66 67 73 74 77 78 93 93 92 97 95 76 79 86 85 77 81 87 79 75 79 77 91 92 86 77 65 86 93 96 96 96 93 85 92 69 44 59 48 50 72 83 96 97
66 69 73 75 76 76 91 93 94 96 96 82 74 74 75 76 78 85 78 79 79 90 90 91 83 89 72 91 80 96 97 96 95 94 95 84 78 63 73 81 82 93 94 84
70 71 75 75 74 77 85 92 89 91 99 86 86 83 73 68 66 78 80 82 83 87 95 90 92 88 86 83 90 97 96 98 94 92 67 73 76 80 78 86 86 86 86 90
71 73 75 74 73 78 85 95 94 99 100 94 84 79 69 76 75 68 80 76 68 81 86 99 93 94 82 91 77 91 87 94 99 98 92 92 86 78 75 79 86 80 82 86
71 75 75 74 76 79 86 97 94 96 100 99 78 63 73 62 73 78 71 67 74 80 86 91 90 87 73 81 73 82 95 97 98 95 100 95 94 96 86 83 81 82 80 80
71 74 74 74 75 80 91 95 96 92 87 95 87 79 59 59 72 84 84 84 83 86 93 96 89 81 91 82 88 92 88 97 98 98 100 100 100 100 98 90 89 84 81 80
77 76 76 72 76 78 96 100 90 93 88 99 96 72 78 68 72 80 90 87 86 90 92 91 85 78 80 94 87 84 78 87 99 99 100 96 97 96 95 96 99 94 79 80
74 75 70 70 75 96 98 91 88 88 89 100 96 83 70 71 78 84 88 83 87 88 92 96 84 79 92 90 80 80 76 73 74 71 73 75 82 97 91 78 77 76 75 76
74 76 74 76 77 84 93 93 83 86 99 100 96 87 84 74 84 90 87 95 96 99 96 97 95 91 97 93 87 81 78 71 70 72 69 82 83 82 82 75 74 78 79 77
72 72 73 90 97 100 99 78 83 96 95 95 90 92 93 78 90 91 97 98 99 93 98 95 97 89 96 92 85 82 83 79 78 69 68 68 74 78 78 77 78 81 81 80
75 89 100 100 98 88 88 98 100 100 100 100 93 80 97 86 96 100 100 100 99 98 96 97 99 91 89 86 85 82 76 72 69 74 77 78 78 81 81 83 82 82 84 82
98 100 100 94 88 98 100 99 99 97 98 91 81 83 87 83 93 94 96 98 98 96 91 98 93 90 88 83 88 75 72 66 64 67 70 70 75 81 81 80 79 78 79 83
95 96 94 98 99 100 97 97 92 86 82 88 84 79 82 88 92 94 97 98 96 93 92 96 90 88 88 77 77 74 73 66 64 66 70 70 70 75 77 77 79 81 84 92
97 100 100 100 99 98 96 94 92 89 90 92 91 97 92 93 96 97 97 97 89 84 96 88 86 84 80 80 76 72 68 69 64 66 66 68 72 74 81 83 85 89 90 92
99 99 98 97 98 92 90 83 84 87 93 97 95 96 97 98 99 96 97 92 91 95 94 91 88 86 84 82 78 72 72 77 90 81 76 82 84 87 92 96 96 94 93 94
99 99 97 99 91 94 95 95 97 97 94 95 98 96 95 98 97 94 91 89 92 91 93 92 88 84 84 85 82 84 83 90 90 93 96 97 95 94 94 95 95 92 94 94
97 91 95 96 94 99 98 99 100 96 96 96 92 96 98 97 93 95 90 88 92 94 92 91 88 91 93 97 94 95 94 93 94 95 95 95 97 98 95 94 95 96 94 94
95 98 95 96 97 98 98 97 96 92 99 99 95 95 94 93 95 96 91 96 93 91 92 91 94 94 96 100 96 97 95 93 94 94 93 94 93 91 88 93 93 92 92 93

GFSNW_sfc_rhum_120.txt.gz
RH
69 70 69 63 63 72 63 59 86 50 56 60 55 40 46 51 36 37 39 44 46 47 41 41 37 38 32 27 32 34 24 34 40 30 27 37 50 91 94 78 50 35 31 29
68 68 67 65 68 71 62 77 44 49 60 77 62 51 50 48 47 42 41 41 38 37 40 48 37 39 32 31 34 41 39 35 36 27 35 50 57 36 44 62 69 51 50 30
70 69 67 65 73 72 56 80 86 49 55 46 59 64 52 43 38 40 37 41 45 50 50 40 51 46 40 38 38 52 48 36 38 38 60 45 43 50 35 36 54 45 34 25
68 69 66 64 71 71 59 92 74 55 76 63 51 49 47 45 58 46 44 49 53 58 77 51 48 45 50 46 44 39 38 38 27 24 24 25 36 39 32 32 28 36 28 20
71 67 64 67 73 70 64 98 72 60 47 53 51 57 50 53 49 62 66 69 81 70 78 97 96 71 67 55 38 42 34 43 34 34 26 27 33 26 26 24 26 22 20 22
71 67 67 68 76 64 68 67 57 58 65 55 52 53 54 60 72 52 58 95 90 59 53 52 54 55 57 61 67 60 56 47 43 42 25 25 35 26 23 22 19 22 27 19
68 68 70 70 76 63 52 64 59 83 59 43 44 48 48 71 59 72 48 48 53 43 43 54 47 51 56 52 50 51 62 57 52 56 40 58 22 16 20 24 20 16 17 17
68 68 69 72 76 72 58 68 68 69 71 43 46 54 57 49 49 52 53 44 44 54 60 70 47 39 41 34 32 36 42 57 64 68 45 29 24 22 24 24 23 17 20 28
74 71 69 72 74 78 61 61 66 65 85 47 54 54 53 54 48 47 49 44 47 58 62 71 63 56 53 60 59 54 65 63 62 56 70 62 34 30 28 32 44 53 61 74
73 70 71 74 73 79 63 56 71 65 90 46 57 58 56 56 57 57 50 55 57 49 71 82 65 56 47 73 92 92 88 97 90 71 90 54 35 40 37 60 72 64 82 99
73 72 74 74 74 79 65 57 69 66 79 53 58 54 54 51 54 62 53 58 62 63 77 71 56 67 57 82 76 96 95 95 92 84 92 82 49 45 75 69 68 81 92 96
76 75 74 75 74 79 69 64 63 71 87 61 65 61 54 50 45 54 52 59 62 68 84 74 79 75 74 79 82 81 94 98 94 92 77 73 71 81 66 65 82 89 91 81
76 73 74 75 74 76 74 70 75 97 100 81 62 54 48 50 57 50 61 45 46 53 64 94 75 77 58 82 71 88 83 87 100 98 96 91 98 94 95 80 86 79 78 74
73 76 75 76 74 77 76 81 76 93 91 92 51 44 53 41 48 56 57 50 54 59 60 78 76 73 49 61 66 72 95 93 93 98 94 92 91 98 98 97 97 96 69 66
74 72 76 75 74 80 82 80 93 87 75 84 66 49 41 43 45 52 56 61 63 58 79 87 79 54 63 60 60 84 79 97 94 95 100 100 100 100 100 99 97 89 71 68
74 73 74 74 76 80 89 100 86 85 84 86 78 42 52 50 50 54 59 60 62 65 77 74 63 51 73 82 68 74 69 95 96 91 74 97 83 70 77 77 81 75 68 69
77 78 77 78 80 79 80 77 90 78 84 100 85 59 44 54 60 59 60 63 70 69 77 78 62 58 83 81 67 76 67 81 69 60 63 68 70 86 68 68 66 65 63 66
75 75 76 78 79 77 76 66 87 83 96 90 90 75 62 57 64 73 58 74 80 78 71 73 77 78 85 83 76 67 64 66 75 58 61 66 62 62 66 61 58 60 64 70
75 74 77 77 82 97 75 76 84 86 95 89 86 85 82 56 68 77 92 93 98 72 94 79 86 69 86 85 71 68 65 62 59 51 54 53 61 63 64 66 66 69 69 67
72 81 98 100 97 77 83 93 99 100 100 100 86 53 78 57 80 89 97 100 98 97 78 79 96 83 80 74 74 65 57 51 50 57 60 61 63 65 66 68 68 70 69 69
93 100 96 78 81 91 94 96 96 92 96 83 64 56 68 54 77 76 73 98 94 94 85 92 87 88 83 72 71 60 53 48 48 50 53 53 61 64 65 66 66 68 71 75
82 87 88 97 99 100 95 91 90 82 62 64 81 71 64 66 70 80 93 94 99 94 80 98 76 83 73 65 62 62 56 49 48 50 52 54 56 60 63 63 66 72 76 86
88 99 100 100 98 97 90 89 84 82 70 72 80 91 76 78 83 95 98 99 85 65 91 72 76 74 66 59 56 53 49 56 48 49 49 52 57 61 70 74 78 84 84 87
100 100 99 95 97 81 72 64 65 66 75 78 78 85 86 90 98 95 99 86 81 87 84 78 75 72 64 61 59 50 53 66 83 68 60 69 74 78 83 89 90 89 89 89
99 100 93 97 83 87 89 88 84 85 76 78 90 88 87 100 100 92 90 94 86 76 84 84 76 70 65 65 66 68 72 81 81 84 88 88 89 88 87 88 88 87 89 89
99 97 98 94 95 99 100 100 99 87 82 83 81 99 99 99 91 96 88 80 76 88 82 76 66 77 79 82 81 83 86 86 86 86 87 85 89 90 88 86 87 88 88 88
99 92 91 94 98 99 97 97 96 85 94 100 92 100 92 88 89 88 81 91 86 80 78 75 85 86 87 89 87 89 88 86 87 85 85 85 84 84 80 83 84 83 83 85

GFSNW_sfc_rhum_123.txt.gz
RH
66 66 68 64 62 68 71 45 82 41 47 47 30 30 28 45 24 29 30 32 34 34 31 31 28 27 23 18 22 28 23 42 31 21 20 32 44 57 98 92 50 42 36 33
69 71 69 64 66 68 39 59 34 37 51 77 52 37 34 32 32 28 29 30 26 28 32 38 29 26 21 21 27 31 40 38 49 29 15 38 56 54 57 71 87 87 66 57
68 68 67 64 72 68 54 65 86 38 36 30 44 47 39 33 29 29 27 30 31 39 46 35 46 35 28 35 33 51 43 42 40 40 30 67 43 65 45 44 64 57 75 73
69 69 67 63 71 69 54 89 62 43 74 52 38 37 35 44 42 34 33 35 45 56 63 46 47 52 50 32 39 36 40 48 40 29 19 17 18 23 33 44 46 50 31 33
68 70 66 64 70 72 53 97 55 39 36 42 42 50 40 37 36 40 54 57 51 51 59 76 80 51 50 56 48 42 33 71 42 36 24 20 19 17 22 26 29 28 26 24
73 68 65 68 73 71 48 40 42 42 49 43 43 43 42 43 55 43 42 65 71 50 40 40 40 42 43 45 50 54 55 53 46 47 27 29 31 19 16 17 18 25 26 20
70 68 68 68 74 69 37 40 34 75 52 34 35 37 38 51 45 55 37 36 42 36 36 39 36 32 34 36 34 37 54 53 52 60 46 59 23 13 13 18 17 16 15 13
70 70 71 71 75 69 42 42 45 52 61 31 33 41 47 39 36 41 38 34 35 40 44 56 44 36 35 31 32 29 30 44 58 72 60 46 28 38 29 31 28 17 18 18
75 74 71 72 75 72 49 44 45 43 74 37 33 39 39 40 34 36 37 34 36 44 48 57 59 57 46 55 65 62 67 75 76 60 86 67 52 28 26 29 47 44 52 56
76 72 71 72 74 77 57 46 57 44 81 36 41 44 42 41 43 44 37 45 44 38 63 78 60 47 35 58 85 80 76 82 93 69 87 49 67 41 35 66 82 67 71 93
77 74 72 74 74 78 70 53 52 52 71 48 44 40 44 41 40 46 44 49 61 54 69 69 52 62 60 72 63 98 95 92 79 87 90 91 85 53 96 90 63 83 86 95
78 76 75 75 74 78 74 65 48 53 68 56 52 48 42 39 37 43 42 47 48 59 78 71 70 75 63 73 81 77 93 98 96 96 92 96 93 98 96 94 91 93 96 96
81 74 76 75 74 78 74 67 59 71 87 72 49 44 40 39 44 41 50 34 40 42 58 77 72 69 45 78 63 78 91 86 100 98 86 94 98 94 97 98 97 97 92 65
81 78 79 78 74 77 78 78 59 60 70 86 47 30 42 33 36 43 46 45 40 46 52 72 68 69 44 55 54 63 85 83 88 99 88 72 75 99 100 98 95 94 88 61
77 79 78 75 74 77 77 82 63 52 70 91 62 40 34 33 37 41 43 50 53 48 78 82 74 47 54 49 47 84 62 92 93 92 95 95 100 99 76 89 77 69 67 65
77 77 73 75 78 82 88 96 68 58 69 81 80 35 39 36 38 41 45 45 49 54 73 68 55 45 64 81 60 71 60 89 83 84 63 66 76 71 62 68 68 65 61 63
77 76 77 78 81 65 82 81 82 68 71 94 83 52 39 42 45 47 46 48 51 56 80 80 58 52 74 77 65 73 57 58 64 57 57 65 59 67 57 58 53 53 55 57
75 77 77 80 78 72 65 69 79 73 79 70 91 68 50 44 59 76 52 69 76 80 65 60 66 63 76 80 68 55 49 48 54 47 50 50 48 47 47 48 51 55 59 61
76 76 77 80 80 91 63 83 79 70 93 96 89 81 85 47 56 70 73 93 97 61 91 70 62 68 86 79 64 60 54 52 48 42 42 42 48 48 49 48 54 63 63 64
77 85 99 100 89 79 74 92 97 100 100 96 85 48 71 44 70 82 88 98 90 95 71 59 81 63 67 63 60 54 49 43 42 48 51 49 52 53 53 51 53 61 65 70
98 98 86 76 78 80 92 100 98 88 96 72 56 48 57 40 74 76 58 93 92 89 78 79 78 88 79 62 61 52 46 41 41 42 43 42 50 52 54 55 58 64 70 76
71 69 81 79 82 100 95 93 80 73 53 47 65 55 45 55 52 70 78 82 94 87 72 87 70 77 62 54 54 51 46 42 41 40 43 44 46 52 56 57 62 70 74 84
76 81 100 100 93 98 90 85 79 74 56 59 69 87 67 70 66 89 97 96 82 58 84 64 71 64 56 50 46 45 43 53 45 44 45 49 52 55 66 69 74 80 81 83
88 100 99 99 98 74 56 51 55 57 64 66 66 83 81 82 91 90 98 77 73 89 84 75 71 63 58 54 50 43 48 62 79 66 57 65 70 73 77 84 84 84 85 86
98 100 89 94 75 75 84 82 69 67 64 65 77 77 78 93 98 85 82 99 88 69 87 86 76 63 56 57 58 62 68 77 77 79 84 83 84 83 81 81 82 81 84 85
99 95 100 92 96 100 100 100 100 77 69 69 70 96 91 97 88 99 87 73 70 91 83 77 66 68 72 74 75 79 80 81 81 80 81 80 83 84 82 77 83 82 85 84
99 98 95 94 97 100 100 100 97 82 91 98 83 94 92 76 82 81 70 92 88 80 79 78 83 78 82 82 80 82 81 79 78 79 78 79 77 78 76 77 80 75 77 79